OK2ZAW-21 Weather Reports


time (UTC)temp
C
wind
direction
speed
KPH
gust
KPH
rain 1hr
cm
rain 24hr
cm
rain mn
cm
humidity
%
barometer
mb
20260506180121 16 0 0.0 0.0 0.00 0.00 0.00 70 1006.6
20260506175619 16 0 0.0 0.0 0.00 0.00 0.00 69 1006.5
20260506175613 16 0 0.0 0.0 0.00 0.00 0.00 69 1006.5
20260506175111 17 0 0.0 0.0 0.00 0.00 0.00 66 1006.5
20260506175105 17 0 0.0 0.0 0.00 0.00 0.00 66 1006.5
20260506174602 17 0 0.0 0.0 0.00 0.00 0.00 65 1006.5
20260506174556 17 0 0.0 0.0 0.00 0.00 0.00 65 1006.5
20260506174054 17 100 9.7 12.9 0.00 0.00 0.00 63 1006.4
20260506174048 17 100 9.7 12.9 0.00 0.00 0.00 63 1006.4
20260506173546 17 106 11.3 16.1 0.00 0.00 0.00 63 1006.5
20260506173540 17 106 11.3 16.1 0.00 0.00 0.00 63 1006.5
20260506173037 17 114 11.3 16.1 0.00 0.00 0.00 61 1006.5
20260506173031 17 114 11.3 16.1 0.00 0.00 0.00 61 1006.5
20260506172523 17 100 12.9 16.1 0.00 0.00 0.00 60 1006.5
20260506172020 17 102 11.3 19.3 0.00 0.00 0.00 59 1006.6
20260506172014 17 102 11.3 19.3 0.00 0.00 0.00 59 1006.6
20260506171506 17 104 11.3 17.7 0.00 0.00 0.00 58 1006.6
20260506171003 18 106 11.3 14.5 0.00 0.00 0.00 57 1006.6
20260506170957 18 106 11.3 14.5 0.00 0.00 0.00 57 1006.6
20260506170448 18 119 11.3 16.1 0.00 0.00 0.00 56 1006.5
20260506165940 18 114 9.7 16.1 0.00 0.00 0.00 55 1006.5
20260506165437 -17 119 9.7 16.1 0.00 0.00 0.00
20260506165431 19 119 9.7 16.1 0.00 0.00 0.00 53 1006.7
20260506164928 19 134 11.3 20.9 0.00 0.00 0.00 52 1006.7
20260506164922 19 134 11.3 20.9 0.00 0.00 0.00 52 1006.7
20260506164413 19 106 12.9 22.5 0.00 0.00 0.00 51 1006.8
20260506163904 19 123 9.7 16.1 0.00 0.00 0.00 51 1006.7
20260506162847 20 121 12.9 22.5 0.00 0.00 0.00 49 1006.7
20260506162344 20 132 12.9 19.3 0.00 0.00 0.00 49 1006.8
20260506162338 20 132 12.9 19.3 0.00 0.00 0.00 49 1006.8
20260506161835 20 111 11.3 20.9 0.00 0.00 0.00 49 1006.7
20260506161829 20 111 11.3 20.9 0.00 0.00 0.00 49 1006.7
20260506161320 20 125 11.3 16.1 0.00 0.00 0.00 49 1006.8
20260506160818 20 128 9.7 0.0 0.00 0.00 0.00 49 1006.9
20260506160811 20 128 9.7 0.0 0.00 0.00 0.00 49 1006.9
20260506160302 20 108 9.7 12.9 0.00 0.00 0.00 49 1007.0
20260506155800 20 114 11.3 14.5 0.00 0.00 0.00 51 1007.0
20260506155753 20 114 11.3 14.5 0.00 0.00 0.00 51 1007.0
20260506155245 20 120 8.0 9.7 0.00 0.00 0.00 51 1007.2
20260506154736 20 114 9.7 14.5 0.00 0.00 0.00 50 1007.3
20260506154234 19 133 11.3 16.1 0.00 0.00 0.00 50 1007.4
20260506154227 19 133 11.3 16.1 0.00 0.00 0.00 50 1007.4
20260506153725 19 0 0.0 0.0 0.00 0.00 0.00 51 1007.6
20260506153719 19 0 0.0 0.0 0.00 0.00 0.00 51 1007.6
20260506153210 20 0 0.0 0.0 0.00 0.00 0.00 49 1007.5
20260506152702 20 0 0.0 0.0 0.00 0.00 0.00 49 1007.8
20260506152159 20 0 0.0 0.0 0.00 0.00 0.00 49 1007.6
20260506152153 20 0 0.0 0.0 0.00 0.00 0.00 49 1007.6
20260506151650 21 0 0.0 0.0 0.00 0.00 0.00 48 1007.7
20260506151644 21 0 0.0 0.0 0.00 0.00 0.00 48 1007.7
20260506151135 21 0 0.0 0.0 0.00 0.00 0.00 49 1007.8
20260506150627 21 0 0.0 0.0 0.00 0.00 0.00 50 1007.8
20260506150118 21 0 0.0 0.0 0.00 0.00 0.00 49 1007.8
20260506145951 21 0 0.0 0.0 0.00 0.00 0.00 49 1007.8
20260506145921 21 0 0.0 0.0 0.00 0.00 0.00 50 1007.9
20260506145849 21 0 0.0 0.0 0.00 0.00 0.00 49 1007.8
20260506145821 21 0 0.0 0.0 0.00 0.00 0.00 49 1007.8
20260506145815 21 0 0.0 0.0 0.00 0.00 0.00 49 1007.8
20260506145743 21 0 0.0 0.0 0.00 0.00 0.00 48 1007.9
20260506145709 21 0 0.0 0.0 0.00 0.00 0.00 48 1007.7
20260506145703 21 0 0.0 0.0 0.00 0.00 0.00 48 1007.7
20260506145629 21 0 0.0 0.0 0.00 0.00 0.00 48 1007.9
20260506145555 21 0 0.0 0.0 0.00 0.00 0.00 49 1007.9
20260506145549 21 0 0.0 0.0 0.00 0.00 0.00 49 1007.9
20260506145503 21 0 0.0 0.0 0.00 0.00 0.00 49 1007.9
20260506145456 21 0 0.0 0.0 0.00 0.00 0.00 49 1007.9
20260506145427 21 0 0.0 0.0 0.00 0.00 0.00 49 1007.9
20260506145421 21 0 0.0 0.0 0.00 0.00 0.00 49 1007.9
20260506145356 21 0 0.0 0.0 0.00 0.00 0.00 48 1008.0
20260506145339 21 0 0.0 0.0 0.00 0.00 0.00 48 1007.9
20260506145332 21 0 0.0 0.0 0.00 0.00 0.00 48 1007.9
20260506145306 21 0 0.0 0.0 0.00 0.00 0.00 48 1008.0
20260506145245 21 0 0.0 0.0 0.00 0.00 0.00 48 1007.9
20260506145238 21 0 0.0 0.0 0.00 0.00 0.00 48 1007.9
20260506145211 21 0 0.0 0.0 0.00 0.00 0.00 48 1008.0
20260506145204 21 0 0.0 0.0 0.00 0.00 0.00 48 1008.0
20260506145134 21 0 0.0 0.0 0.00 0.00 0.00 48 1007.8
20260506145113 21 0 0.0 0.0 0.00 0.00 0.00 48 1008.0
20260506145107 21 0 0.0 0.0 0.00 0.00 0.00 48 1008.0
20260506145043 21 0 0.0 0.0 0.00 0.00 0.00 48 1008.0
20260506145036 21 0 0.0 0.0 0.00 0.00 0.00 48 1008.0
20260506145022 21 0 0.0 0.0 0.00 0.00 0.00 48 1008.1
20260506145015 21 0 0.0 0.0 0.00 0.00 0.00 48 1008.1
20260506145008 21 0 0.0 0.0 0.00 0.00 0.00 48 1008.1
20260506144936 21 0 0.0 0.0 0.00 0.00 0.00 48 1008.2
20260506144904 21 0 0.0 0.0 0.00 0.00 0.00 49 1008.1
20260506144834 21 0 0.0 0.0 0.00 0.00 0.00 48 1008.0
20260506144804 21 0 0.0 0.0 0.00 0.00 0.00 49 1008.1
20260506144732 21 0 0.0 0.0 0.00 0.00 0.00 49 1008.1
20260506144712 21 0 0.0 0.0 0.00 0.00 0.00 49 1008.2
20260506144706 21 0 0.0 0.0 0.00 0.00 0.00 49 1008.2
20260506144644 21 0 0.0 0.0 0.00 0.00 0.00 49 1007.9
20260506144638 21 0 0.0 0.0 0.00 0.00 0.00 49 1007.9
20260506144612 21 0 0.0 0.0 0.00 0.00 0.00 48
20260506144606 21 0 0.0 0.0 0.00 0.00 0.00 48 1008.1
20260506144536 21 0 0.0 0.0 0.00 0.00 0.00 48 1008.0
20260506144514 21 0 0.0 0.0 0.00 0.00 0.00 48 1008.0
20260506144444 21 0 0.0 0.0 0.00 0.00 0.00 48 1008.0
20260506144438 21 0 0.0 0.0 0.00 0.00 0.00 48 1008.0
20260506144416 21 0 0.0 0.0 0.00 0.00 0.00 47 1008.2
20260506144410 21 0 0.0 0.0 0.00 0.00 0.00 47 1008.2
20260506144340 21 0 0.0 0.0 0.00 0.00 0.00 48 1008.0
20260506144312 21 0 0.0 0.0 0.00 0.00 0.00 48 1008.2
20260506144306 21 0 0.0 0.0 0.00 0.00 0.00 48 1008.2
20260506144234 21 0 0.0 0.0 0.00 0.00 0.00 47 1008.2
20260506144209 21 0 0.0 0.0 0.00 0.00 0.00 46 1008.2
20260506144202 21 0 0.0 0.0 0.00 0.00 0.00 46 1008.2
20260506144143 21 0 0.0 0.0 0.00 0.00 0.00 46 1008.1
20260506144136 21 0 0.0 0.0 0.00 0.00 0.00 46 1008.1
20260506144112 21 0 0.0 0.0 0.00 0.00 0.00 47 1008.2
20260506144106 21 0 0.0 0.0 0.00 0.00 0.00 47 1008.2
20260506144042 21 0 0.0 0.0 0.00 0.00 0.00 49 1008.2
20260506144037 21 0 0.0 0.0 0.00 0.00 0.00 49 1008.2
20260506144012 21 0 0.0 0.0 0.00 0.00 0.00 49 1008.2
20260506144006 21 0 0.0 0.0 0.00 0.00 0.00 49 1008.2
20260506143934 21 0 0.0 0.0 0.00 0.00 0.00 49 1008.3
20260506143904 21 0 0.0 0.0 0.00 0.00 0.00 48 1008.2
20260506143838 21 0 0.0 0.0 0.00 0.00 0.00 50 1008.3
20260506143808 21 0 0.0 0.0 0.00 0.00 0.00 50 1008.3
20260506143802 21 0 0.0 0.0 0.00 0.00 0.00 50 1008.3
20260506143728 21 0 0.0 0.0 0.00 0.00 0.00 51 1008.3
20260506143658 20 0 0.0 0.0 0.00 0.00 0.00 52 1008.1
20260506143652 20 0 0.0 0.0 0.00 0.00 0.00 52 1008.1
20260506143626 20 0 0.0 0.0 0.00 0.00 0.00 52 1008.2
20260506143600 20 0 0.0 0.0 0.00 0.00 0.00 51 1008.2
20260506143554 20 0 0.0 0.0 0.00 0.00 0.00 51 1008.2
20260506143532 20 0 0.0 0.0 0.00 0.00 0.00 52 1008.2
20260506143526 20 0 0.0 0.0 0.00 0.00 0.00 52 1008.2
20260506143454 20 0 0.0 0.0 0.00 0.00 0.00 52 1008.2
20260506143448 20 0 0.0 0.0 0.00 0.00 0.00 52 1008.2
20260506143420 20 0 0.0 0.0 0.00 0.00 0.00 52 1008.3
20260506143342 20 0 0.0 0.0 0.00 0.00 0.00 53 1008.2
20260506143302 20 0 0.0 0.0 0.00 0.00 0.00 53 1008.2
20260506143256 20 0 0.0 0.0 0.00 0.00 0.00 53 1008.2
20260506143222 20 0 0.0 0.0 0.00 0.00 0.00 52 1008.3
20260506143152 20 0 0.0 0.0 0.00 0.00 0.00 52 1008.3
20260506143146 20 0 0.0 0.0 0.00 0.00 0.00 52 1008.3
20260506143114 20 0 0.0 0.0 0.00 0.00 0.00 52 1008.2
20260506143042 20 0 0.0 0.0 0.00 0.00 0.00 51 1008.2
20260506143022 20 0 0.0 0.0 0.00 0.00 0.00 51 1008.3
20260506143016 20 0 0.0 0.0 0.00 0.00 0.00 51 1008.3
20260506142942 20 0 0.0 0.0 0.00 0.00 0.00 50 1008.2
20260506142918 20 0 0.0 0.0 0.00 0.00 0.00 49 1008.3
20260506142844 20 0 0.0 0.0 0.00 0.00 0.00 49 1008.3
20260506142824 20 0 0.0 0.0 0.00 0.00 0.00 49 1008.4
20260506142750 20 0 0.0 0.0 0.00 0.00 0.00 49 1008.4
20260506142720 20 0 0.0 0.0 0.00 0.00 0.00 50 1008.4
20260506142648 20 0 0.0 0.0 0.00 0.00 0.00 49 1008.4
20260506142628 20 0 0.0 0.0 0.00 0.00 0.00 49 1008.5
20260506142622 20 0 0.0 0.0 0.00 0.00 0.00 49 1008.5
20260506142600 20 0 0.0 0.0 0.00 0.00 0.00 49 1008.3
20260506142554 20 0 0.0 0.0 0.00 0.00 0.00 49 1008.3
20260506142520 20 0 0.0 0.0 0.00 0.00 0.00 48 1008.4
20260506142458 21 0 0.0 0.0 0.00 0.00 0.00 47 1008.4
20260506142452 21 0 0.0 0.0 0.00 0.00 0.00 47 1008.4
20260506142417 21 0 0.0 0.0 0.00 0.00 0.00 47 1008.4
20260506142332 21 0 0.0 0.0 0.00 0.00 0.00 46 1008.4
20260506142302 21 0 0.0 0.0 0.00 0.00 0.00 47 1008.5
20260506142236 21 0 0.0 0.0 0.00 0.00 0.00 47 1008.4
20260506142206 21 0 0.0 0.0 0.00 0.00 0.00 49 1008.4
20260506142140 21 0 0.0 0.0 0.00 0.00 0.00 48 1008.4
20260506142112 21 0 0.0 0.0 0.00 0.00 0.00 48 1008.5
20260506142047 21 0 0.0 0.0 0.00 0.00 0.00 48 1008.3
20260506142015 21 0 0.0 0.0 0.00 0.00 0.00 48 1008.4
20260506141943 21 0 0.0 0.0 0.00 0.00 0.00 48 1008.3
20260506141911 22 0 0.0 0.0 0.00 0.00 0.00 48 1008.3
20260506141845 22 0 0.0 0.0 0.00 0.00 0.00 49 1008.5
20260506141817 22 0 0.0 0.0 0.00 0.00 0.00 50 1008.4
20260506141755 22 0 0.0 0.0 0.00 0.00 0.00 49 1008.3
20260506141647 21 0 0.0 0.0 0.00 0.00 0.00 49 1008.4
20260506141613 21 0 0.0 0.0 0.00 0.00 0.00 50 1008.5
20260506141539 21 0 0.0 0.0 0.00 0.00 0.00 50 1008.4
20260506141509 21 0 0.0 0.0 0.00 0.00 0.00 50 1008.3
20260506141428 21 0 0.0 0.0 0.00 0.00 0.00 50 1008.4
20260506141357 21 0 0.0 0.0 0.00 0.00 0.00 50 1008.4
20260506141331 21 0 0.0 0.0 0.00 0.00 0.00 50 1008.3
20260506141255 21 0 0.0 0.0 0.00 0.00 0.00 51 1008.4
20260506141221 21 0 0.0 0.0 0.00 0.00 0.00 51 1008.4
20260506141147 20 0 0.0 0.0 0.00 0.00 0.00 52 1008.5
20260506141111 20 0 0.0 0.0 0.00 0.00 0.00 53 1008.5
20260506141035 20 0 0.0 0.0 0.00 0.00 0.00 53 1008.4
20260506141014 20 0 0.0 0.0 0.00 0.00 0.00 53 1008.4
20260506141007 20 0 0.0 0.0 0.00 0.00 0.00 53 1008.4
20260506140937 20 0 0.0 0.0 0.00 0.00 0.00 53 1008.5
20260506140931 20 0 0.0 0.0 0.00 0.00 0.00 53 1008.5
20260506140859 20 0 0.0 0.0 0.00 0.00 0.00 54 1008.5
20260506140825 19 0 0.0 0.0 0.00 0.00 0.00 54 1008.5
20260506140749 19 0 0.0 0.0 0.00 0.00 0.00 54 1008.4
20260506140713 19 0 0.0 0.0 0.00 0.00 0.00 54 1008.5
20260506140645 19 0 0.0 0.0 0.00 0.00 0.00 54 1008.5
20260506140639 19 0 0.0 0.0 0.00 0.00 0.00 54 1008.5
20260506140603 19 0 0.0 0.0 0.00 0.00 0.00 53 1008.5
20260506140541 19 0 0.0 0.0 0.00 0.00 0.00 54 1008.5
20260506140535 19 0 0.0 0.0 0.00 0.00 0.00 54 1008.5
20260506140508 19 0 0.0 0.0 0.00 0.00 0.00 53 1008.6
20260506140501 19 0 0.0 0.0 0.00 0.00 0.00 53 1008.6
20260506140443 19 0 0.0 0.0 0.00 0.00 0.00 53 1008.6
20260506140419 19 0 0.0 0.0 0.00 0.00 0.00 53 1008.6
20260506140413 19 0 0.0 0.0 0.00 0.00 0.00 53 1008.6
20260506140353 19 0 0.0 0.0 0.00 0.00 0.00 54 1008.6
20260506140321 19 0 0.0 0.0 0.00 0.00 0.00 54 1008.6
20260506140249 19 0 0.0 0.0 0.00 0.00 0.00 53 1008.4
20260506140219 19 0 0.0 0.0 0.00 0.00 0.00 53 1008.5
20260506140213 19 0 0.0 0.0 0.00 0.00 0.00 53 1008.5
20260506140131 19 0 0.0 0.0 0.00 0.00 0.00 53 1008.6
20260506140049 19 0 0.0 0.0 0.00 0.00 0.00 53 1008.5
20260506140043 19 0 0.0 0.0 0.00 0.00 0.00 53 1008.5
20260506140013 19 0 0.0 0.0 0.00 0.00 0.00 54 1008.6
20260506140007 19 0 0.0 0.0 0.00 0.00 0.00 54 1008.6
20260506135943 19 0 0.0 0.0 0.00 0.00 0.00 53 1008.6
20260506135917 19 0 0.0 0.0 0.00 0.00 0.00 53 1008.6
20260506135911 19 0 0.0 0.0 0.00 0.00 0.00 53 1008.6
20260506135847 19 0 0.0 0.0 0.00 0.00 0.00 53 1008.5
20260506135823 19 0 0.0 0.0 0.00 0.00 0.00 54 1008.6
20260506135755 19 0 0.0 0.0 0.00 0.00 0.00 54 1008.6
20260506135749 19 0 0.0 0.0 0.00 0.00 0.00 54 1008.6
20260506135725 19 0 0.0 0.0 0.00 0.00 0.00 53 1008.6
20260506135719 19 0 0.0 0.0 0.00 0.00 0.00 53 1008.6
20260506135657 19 0 0.0 0.0 0.00 0.00 0.00 54 1008.7
20260506135651 19 0 0.0 0.0 0.00 0.00 0.00 54 1008.7
20260506135621 19 0 0.0 0.0 0.00 0.00 0.00 53 1008.6
20260506135547 19 0 0.0 0.0 0.00 0.00 0.00 53 1008.6
20260506135524 19 0 0.0 0.0 0.00 0.00 0.00 53 1008.7
20260506135517 19 0 0.0 0.0 0.00 0.00 0.00 53 1008.7
20260506135447 19 0 0.0 0.0 0.00 0.00 0.00 53 1008.6
20260506135421 19 0 0.0 0.0 0.00 0.00 0.00 53 1008.6
20260506135415 19 0 0.0 0.0 0.00 0.00 0.00 53 1008.6
20260506135357 19 0 0.0 0.0 0.00 0.00 0.00 53 1008.7
20260506135351 19 0 0.0 0.0 0.00 0.00 0.00 53 1008.7
20260506135335 19 0 0.0 0.0 0.00 0.00 0.00 53 1008.6
20260506135329 19 0 0.0 0.0 0.00 0.00 0.00 53 1008.6
20260506135243 19 0 0.0 0.0 0.00 0.00 0.00 53 1008.7
20260506135238 19 0 0.0 0.0 0.00 0.00 0.00 53 1008.7
20260506135207 19 0 0.0 0.0 0.00 0.00 0.00 53 1008.7
20260506135143 19 0 0.0 0.0 0.00 0.00 0.00 52 1008.7
20260506135137 19 0 0.0 0.0 0.00 0.00 0.00 52 1008.7
20260506135111 19 0 0.0 0.0 0.00 0.00 0.00 51 1008.7
20260506135105 19 0 0.0 0.0 0.00 0.00 0.00 51 1008.7
20260506135035 19 0 0.0 0.0 0.00 0.00 0.00 52 1008.7
20260506135029 19 0 0.0 0.0 0.00 0.00 0.00 52 1008.7
20260506135001 19 0 0.0 0.0 0.00 0.00 0.00 51 1008.7
20260506134955 19 0 0.0 0.0 0.00 0.00 0.00 51 1008.7
20260506134927 20 0 0.0 0.0 0.00 0.00 0.00 51 1008.8
20260506134921 20 0 0.0 0.0 0.00 0.00 0.00 51 1008.8
20260506134845 20 0 0.0 0.0 0.00 0.00 0.00 51 1008.7
20260506134839 20 0 0.0 0.0 0.00 0.00 0.00 51 1008.7
20260506134807 20 0 0.0 0.0 0.00 0.00 0.00 50 1008.6
20260506134737 20 0 0.0 0.0 0.00 0.00 0.00 50 1008.7
20260506134731 20 0 0.0 0.0 0.00 0.00 0.00 50 1008.7
20260506134705 20 0 0.0 0.0 0.00 0.00 0.00 51 1008.7
20260506134658 20 0 0.0 0.0 0.00 0.00 0.00 51 1008.7
20260506134620 20 0 0.0 0.0 0.00 0.00 0.00 50 1008.7
20260506134555 20 0 0.0 0.0 0.00 0.00 0.00 50 1008.7
20260506134548 20 0 0.0 0.0 0.00 0.00 0.00 50 1008.7
20260506134517 20 0 0.0 0.0 0.00 0.00 0.00 50 1008.8
20260506134510 20 0 0.0 0.0 0.00 0.00 0.00 50 1008.8
20260506134439 20 0 0.0 0.0 0.00 0.00 0.00 50 1008.8
20260506134412 20 0 0.0 0.0 0.00 0.00 0.00 52 1008.7
20260506134343 20 0 0.0 0.0 0.00 0.00 0.00 52 1008.8
20260506134312 20 0 0.0 0.0 0.00 0.00 0.00 51 1008.7
20260506134240 20 0 0.0 0.0 0.00 0.00 0.00 52 1008.6
20260506134144 20 0 0.0 0.0 0.00 0.00 0.00 51 1008.7
20260506134118 20 0 0.0 0.0 0.00 0.00 0.00 51 1008.7
20260506134112 20 0 0.0 0.0 0.00 0.00 0.00 51 1008.7
20260506134020 20 0 0.0 0.0 0.00 0.00 0.00 51 1008.7
20260506134014 20 0 0.0 0.0 0.00 0.00 0.00 51 1008.7
20260506133952 20 0 0.0 0.0 0.00 0.00 0.00 52 1008.8
20260506133948 20 0 0.0 0.0 0.00 0.00 0.00 52 1008.8
20260506133923 20 0 0.0 0.0 0.00 0.00 0.00 52 1008.8
20260506133917 20 0 0.0 0.0 0.00 0.00 0.00 52 1008.8
20260506133842 20 0 0.0 0.0 0.00 0.00 0.00 51 1008.8
20260506133820 20 0 0.0 0.0 0.00 0.00 0.00 52 1008.7
20260506133814 20 0 0.0 0.0 0.00 0.00 0.00 52 1008.7
20260506133740 20 0 0.0 0.0 0.00 0.00 0.00 53 1008.9
20260506133715 20 0 0.0 0.0 0.00 0.00 0.00 54 1008.9
20260506133708 20 0 0.0 0.0 0.00 0.00 0.00 54 1008.9
20260506133632 20 0 0.0 0.0 0.00 0.00 0.00 54 1008.8
20260506133626 20 0 0.0 0.0 0.00 0.00 0.00 54 1008.8
20260506133554 19 0 0.0 0.0 0.00 0.00 0.00 53 1008.9
20260506133518 19 0 0.0 0.0 0.00 0.00 0.00 54 1008.9
20260506133512 19 0 0.0 0.0 0.00 0.00 0.00 54 1008.9
20260506133444 19 0 0.0 0.0 0.00 0.00 0.00 55 1008.9
20260506133438 19 0 0.0 0.0 0.00 0.00 0.00 55 1008.9
20260506133402 19 0 0.0 0.0 0.00 0.00 0.00 55 1008.8
20260506133338 19 0 0.0 0.0 0.00 0.00 0.00 55 1009.0
20260506133332 19 0 0.0 0.0 0.00 0.00 0.00 55 1009.0
20260506133304 18 0 0.0 0.0 0.00 0.00 0.00 56 1009.0
20260506133258 18 0 0.0 0.0 0.00 0.00 0.00 56 1009.0
20260506133228 18 0 0.0 0.0 0.00 0.00 0.00 57 1009.0
20260506133154 18 0 0.0 0.0 0.00 0.00 0.00 56 1009.0
20260506133122 18 0 0.0 0.0 0.00 0.00 0.00 56 1009.0
20260506133050 18 0 0.0 0.0 0.00 0.00 0.00 56 1009.0
20260506133022 18 0 0.0 0.0 0.00 0.00 0.00 56 1009.0
20260506133016 18 0 0.0 0.0 0.00 0.00 0.00 56 1009.0
20260506132952 18 0 0.0 0.0 0.00 0.00 0.00 57 1009.0
20260506132946 18 0 0.0 0.0 0.00 0.00 0.00 57 1009.0
20260506132918 18 0 0.0 0.0 0.00 0.00 0.00 56 1009.0
20260506132912 18 0 0.0 0.0 0.00 0.00 0.00 56 1009.0
20260506132816 18 0 0.0 0.0 0.00 0.00 0.00 56 1009.0
20260506132812 18 0 0.0 0.0 0.00 0.00 0.00 56 1009.0
20260506132746 18 0 0.0 0.0 0.00 0.00 0.00 56 1009.0
20260506132740 18 0 0.0 0.0 0.00 0.00 0.00 56 1009.0
20260506132708 18 0 0.0 0.0 0.00 0.00 0.00 56 1009.0
20260506132624 18 0 0.0 0.0 0.00 0.00 0.00 56 1008.9
20260506132618 18 0 0.0 0.0 0.00 0.00 0.00 56 1008.9
20260506132532 18 0 0.0 0.0 0.00 0.00 0.00 56 1009.0
20260506132448 18 0 0.0 0.0 0.00 0.00 0.00 56 1009.0
20260506132442 18 0 0.0 0.0 0.00 0.00 0.00 56 1009.0
20260506132414 18 0 0.0 0.0 0.00 0.00 0.00 56 1008.9
20260506132408 18 0 0.0 0.0 0.00 0.00 0.00 56 1008.9
20260506132334 18 0 0.0 0.0 0.00 0.00 0.00 56 1009.0
20260506132238 18 0 0.0 0.0 0.00 0.00 0.00 55 1009.0
20260506132134 18 0 0.0 0.0 0.00 0.00 0.00 54 1009.1
20260506131752 19 0 0.0 0.0 0.00 0.00 0.00 53 1009.1
20260506131746 19 0 0.0 0.0 0.00 0.00 0.00 53 1009.1
20260506131654 20 0 0.0 0.0 0.00 0.00 0.00 53 1009.1
20260506131610 20 0 0.0 0.0 0.00 0.00 0.00 53 1009.2
20260506131514 20 0 0.0 0.0 0.00 0.00 0.00 53 1009.2
20260506131442 20 0 0.0 0.0 0.00 0.00 0.00 52 1009.2
20260506131435 20 0 0.0 0.0 0.00 0.00 0.00 52 1009.2
20260506131418 20 0 0.0 0.0 0.00 0.00 0.00 53 1009.2
20260506131412 20 0 0.0 0.0 0.00 0.00 0.00 53 1009.2
20260506131346 20 0 0.0 0.0 0.00 0.00 0.00 53 1009.3
20260506131340 20 0 0.0 0.0 0.00 0.00 0.00 53 1009.3
20260506131314 20 0 0.0 0.0 0.00 0.00 0.00 53 1009.3
20260506131307 20 0 0.0 0.0 0.00 0.00 0.00 53 1009.3
20260506131242 19 0 0.0 0.0 0.00 0.00 0.00 54 1009.3
20260506131235 19 0 0.0 0.0 0.00 0.00 0.00 54 1009.3
20260506131208 19 0 0.0 0.0 0.00 0.00 0.00 53 1009.4
20260506131202 19 0 0.0 0.0 0.00 0.00 0.00 53 1009.4
20260506131129 19 0 0.0 0.0 0.00 0.00 0.00 53 1009.3
20260506131057 19 0 0.0 0.0 0.00 0.00 0.00 53 1009.3
20260506131025 19 0 0.0 0.0 0.00 0.00 0.00 53 1009.3
20260506131000 19 0 0.0 0.0 0.00 0.00 0.00 54 1009.3
20260506130953 19 0 0.0 0.0 0.00 0.00 0.00 54 1009.3
20260506130930 19 0 0.0 0.0 0.00 0.00 0.00 54 1009.4
20260506130923 19 0 0.0 0.0 0.00 0.00 0.00 54 1009.4
20260506130903 19 0 0.0 0.0 0.00 0.00 0.00 53 1009.4
20260506130858 19 0 0.0 0.0 0.00 0.00 0.00 53 1009.4
20260506130831 19 0 0.0 0.0 0.00 0.00 0.00 54 1009.4
20260506130825 19 0 0.0 0.0 0.00 0.00 0.00 54 1009.4
20260506130752 19 0 0.0 0.0 0.00 0.00 0.00 54 1009.4
20260506130728 19 0 0.0 0.0 0.00 0.00 0.00 54 1009.3
20260506130721 19 0 0.0 0.0 0.00 0.00 0.00 54 1009.3
20260506130659 19 0 0.0 0.0 0.00 0.00 0.00 54 1009.4
20260506130653 19 0 0.0 0.0 0.00 0.00 0.00 54 1009.4
20260506130625 19 0 0.0 0.0 0.00 0.00 0.00 54 1009.4
20260506130619 19 0 0.0 0.0 0.00 0.00 0.00 54 1009.4
20260506130556 19 0 0.0 0.0 0.00 0.00 0.00 55 1009.4
20260506130549 19 0 0.0 0.0 0.00 0.00 0.00 55 1009.4
20260506130519 18 0 0.0 0.0 0.00 0.00 0.00 54 1009.4
20260506130415 18 0 0.0 0.0 0.00 0.00 0.00 54 1009.4
20260506130347 18 0 0.0 0.0 0.00 0.00 0.00 55 1009.4
20260506130315 18 0 0.0 0.0 0.00 0.00 0.00 55 1009.4
20260506130241 18 0 0.0 0.0 0.00 0.00 0.00 54 1009.4
20260506130209 18 0 0.0 0.0 0.00 0.00 0.00 54 1009.4
20260506130137 18 0 0.0 0.0 0.00 0.00 0.00 54 1009.4
20260506130105 18 0 0.0 0.0 0.00 0.00 0.00 54 1009.4
20260506130041 18 0 0.0 0.0 0.00 0.00 0.00 53 1009.3
20260506130035 18 0 0.0 0.0 0.00 0.00 0.00 53 1009.3
20260506130019 18 0 0.0 0.0 0.00 0.00 0.00 54 1009.3
20260506130013 18 0 0.0 0.0 0.00 0.00 0.00 54 1009.3
20260506125959 18 0 0.0 0.0 0.00 0.00 0.00 54 1009.4
20260506125935 18 0 0.0 0.0 0.00 0.00 0.00 54 1009.4
20260506125929 18 0 0.0 0.0 0.00 0.00 0.00 54 1009.4
20260506125903 18 0 0.0 0.0 0.00 0.00 0.00 54 1009.4
20260506125857 18 0 0.0 0.0 0.00 0.00 0.00 54 1009.4
20260506125823 18 0 0.0 0.0 0.00 0.00 0.00 53 1009.4
20260506125817 18 0 0.0 0.0 0.00 0.00 0.00 53 1009.4
20260506125723 18 0 0.0 0.0 0.00 0.00 0.00 53 1009.4
20260506125607 18 0 0.0 0.0 0.00 0.00 0.00 52 1009.5
20260506125129 20 0 0.0 0.0 0.00 0.00 0.00 50 1009.5
20260506125123 20 0 0.0 0.0 0.00 0.00 0.00 50 1009.5
20260506125015 20 0 0.0 0.0 0.00 0.00 0.00 51 1009.5
20260506124925 20 0 0.0 0.0 0.00 0.00 0.00 50 1009.5
20260506124919 20 0 0.0 0.0 0.00 0.00 0.00 50 1009.5
20260506124839 20 0 0.0 0.0 0.00 0.00 0.00 49 1009.6
20260506124803 20 0 0.0 0.0 0.00 0.00 0.00 49 1009.6
20260506124733 20 0 0.0 0.0 0.00 0.00 0.00 49 1009.6
20260506124727 20 0 0.0 0.0 0.00 0.00 0.00 49 1009.6
20260506124713 20 0 0.0 0.0 0.00 0.00 0.00 49 1009.6
20260506124639 20 0 0.0 0.0 0.00 0.00 0.00 49 1009.6
20260506124615 20 0 0.0 0.0 0.00 0.00 0.00 50 1009.5
20260506124609 20 0 0.0 0.0 0.00 0.00 0.00 50 1009.5
20260506124545 20 0 0.0 0.0 0.00 0.00 0.00 49 1009.6
20260506124539 20 0 0.0 0.0 0.00 0.00 0.00 49 1009.6
20260506124517 20 0 0.0 0.0 0.00 0.00 0.00 49 1009.6
20260506124511 20 0 0.0 0.0 0.00 0.00 0.00 49 1009.6
20260506124445 20 0 0.0 0.0 0.00 0.00 0.00 49 1009.6
20260506124439 20 0 0.0 0.0 0.00 0.00 0.00 49 1009.6
20260506124409 20 0 0.0 0.0 0.00 0.00 0.00 49 1009.6
20260506124333 20 0 0.0 0.0 0.00 0.00 0.00 49 1009.6
20260506124303 20 0 0.0 0.0 0.00 0.00 0.00 49 1009.5
20260506124257 20 0 0.0 0.0 0.00 0.00 0.00 49 1009.5
20260506124229 20 0 0.0 0.0 0.00 0.00 0.00 49 1009.5
20260506124159 20 0 0.0 0.0 0.00 0.00 0.00 49 1009.5
20260506124153 20 0 0.0 0.0 0.00 0.00 0.00 49 1009.5
20260506124123 20 0 0.0 0.0 0.00 0.00 0.00 48 1009.5
20260506124051 20 0 0.0 0.0 0.00 0.00 0.00 49 1009.6
20260506124019 20 0 0.0 0.0 0.00 0.00 0.00 49 1009.6
20260506123949 20 0 0.0 0.0 0.00 0.00 0.00 48 1009.7
20260506123927 20 0 0.0 0.0 0.00 0.00 0.00 49 1009.6
20260506123920 20 0 0.0 0.0 0.00 0.00 0.00 49 1009.6
20260506123857 20 0 0.0 0.0 0.00 0.00 0.00 47 1009.7
20260506123850 20 0 0.0 0.0 0.00 0.00 0.00 47 1009.7
20260506123823 20 0 0.0 0.0 0.00 0.00 0.00 47 1009.7
20260506123816 20 0 0.0 0.0 0.00 0.00 0.00 47 1009.7
20260506123751 20 0 0.0 0.0 0.00 0.00 0.00 48 1009.7
20260506123745 20 0 0.0 0.0 0.00 0.00 0.00 48 1009.7
20260506123723 20 0 0.0 0.0 0.00 0.00 0.00 48 1009.6
20260506123716 20 0 0.0 0.0 0.00 0.00 0.00 48 1009.6
20260506123646 20 0 0.0 0.0 0.00 0.00 0.00 47 1009.7
20260506123621 21 0 0.0 0.0 0.00 0.00 0.00 46 1009.7
20260506123544 21 0 0.0 0.0 0.00 0.00 0.00 46 1009.7
20260506123516 21 0 0.0 0.0 0.00 0.00 0.00 46 1009.6
20260506123510 21 0 0.0 0.0 0.00 0.00 0.00 46 1009.6
20260506123438 21 0 0.0 0.0 0.00 0.00 0.00 45 1009.7
20260506123416 21 0 0.0 0.0 0.00 0.00 0.00 46 1009.7
20260506123410 21 0 0.0 0.0 0.00 0.00 0.00 46 1009.7
20260506123316 21 0 0.0 0.0 0.00 0.00 0.00 46 1009.7
20260506123310 21 0 0.0 0.0 0.00 0.00 0.00 46 1009.7
20260506123244 21 0 0.0 0.0 0.00 0.00 0.00 46 1009.6
20260506123238 21 0 0.0 0.0 0.00 0.00 0.00 46 1009.6
20260506123208 21 0 0.0 0.0 0.00 0.00 0.00 46 1009.7
20260506123140 21 0 0.0 0.0 0.00 0.00 0.00 45 1009.7
20260506123114 21 0 0.0 0.0 0.00 0.00 0.00 45 1009.8
20260506123108 21 0 0.0 0.0 0.00 0.00 0.00 45 1009.8
20260506123034 21 0 0.0 0.0 0.00 0.00 0.00 46 1009.7
20260506123004 21 0 0.0 0.0 0.00 0.00 0.00 46 1009.7
20260506122958 21 0 0.0 0.0 0.00 0.00 0.00 46 1009.7
20260506122922 21 0 0.0 0.0 0.00 0.00 0.00 46 1009.8
20260506122844 21 0 0.0 0.0 0.00 0.00 0.00 46 1009.7
20260506122818 21 0 0.0 0.0 0.00 0.00 0.00 45 1009.7
20260506122812 21 0 0.0 0.0 0.00 0.00 0.00 45 1009.7
20260506122738 21 0 0.0 0.0 0.00 0.00 0.00 45 1009.7
20260506122710 21 0 0.0 0.0 0.00 0.00 0.00 46 1009.7
20260506122704 21 0 0.0 0.0 0.00 0.00 0.00 46 1009.7
20260506122630 21 0 0.0 0.0 0.00 0.00 0.00 46 1009.7
20260506122600 21 0 0.0 0.0 0.00 0.00 0.00 46 1009.7
20260506122554 21 0 0.0 0.0 0.00 0.00 0.00 46 1009.7
20260506122452 21 0 0.0 0.0 0.00 0.00 0.00 46 1009.7
20260506122446 21 0 0.0 0.0 0.00 0.00 0.00 46 1009.7
20260506122414 21 0 0.0 0.0 0.00 0.00 0.00 46 1009.8
20260506122408 21 0 0.0 0.0 0.00 0.00 0.00 46 1009.8
20260506122334 21 0 0.0 0.0 0.00 0.00 0.00 45 1009.9
20260506122306 21 0 0.0 0.0 0.00 0.00 0.00 45 1009.8
20260506122258 21 0 0.0 0.0 0.00 0.00 0.00 45 1009.8
20260506122216 21 0 0.0 0.0 0.00 0.00 0.00 46 1009.8
20260506122210 21 0 0.0 0.0 0.00 0.00 0.00 46 1009.8
20260506122108 21 0 0.0 0.0 0.00 0.00 0.00 46 1009.8
20260506122102 21 0 0.0 0.0 0.00 0.00 0.00 46 1009.8
20260506122034 21 0 0.0 0.0 0.00 0.00 0.00 45 1009.8
20260506122028 21 0 0.0 0.0 0.00 0.00 0.00 45 1009.8
20260506121958 21 0 0.0 0.0 0.00 0.00 0.00 44 1009.8
20260506121924 21 0 0.0 0.0 0.00 0.00 0.00 44 1009.8
20260506121858 21 0 0.0 0.0 0.00 0.00 0.00 44 1009.7
20260506121852 21 0 0.0 0.0 0.00 0.00 0.00 44 1009.7
20260506121822 21 0 0.0 0.0 0.00 0.00 0.00 45 1009.8
20260506121754 21 0 0.0 0.0 0.00 0.00 0.00 45 1009.7
20260506121720 21 0 0.0 0.0 0.00 0.00 0.00 45 1009.8
20260506121642 21 0 0.0 0.0 0.00 0.00 0.00 45 1009.7
20260506121614 21 0 0.0 0.0 0.00 0.00 0.00 45 1009.8
20260506121540 21 0 0.0 0.0 0.00 0.00 0.00 46 1009.7
20260506121534 21 0 0.0 0.0 0.00 0.00 0.00 46 1009.7
20260506121456 21 0 0.0 0.0 0.00 0.00 0.00 45 1009.8
20260506121426 21 0 0.0 0.0 0.00 0.00 0.00 45 1009.7
20260506121404 21 0 0.0 0.0 0.00 0.00 0.00 45 1009.7
20260506121358 21 0 0.0 0.0 0.00 0.00 0.00 45 1009.7
20260506121318 21 0 0.0 0.0 0.00 0.00 0.00 45 1009.8
20260506121242 21 0 0.0 0.0 0.00 0.00 0.00 44 1009.8
20260506121210 21 0 0.0 0.0 0.00 0.00 0.00 44 1009.8
20260506121144 21 0 0.0 0.0 0.00 0.00 0.00 45 1009.8
20260506121139 21 0 0.0 0.0 0.00 0.00 0.00 45 1009.8
20260506121114 21 0 0.0 0.0 0.00 0.00 0.00 45 1009.8
20260506121108 21 0 0.0 0.0 0.00 0.00 0.00 45 1009.8
20260506121040 21 0 0.0 0.0 0.00 0.00 0.00 44 1009.8
20260506121010 21 0 0.0 0.0 0.00 0.00 0.00 44 1009.8
20260506121004 21 0 0.0 0.0 0.00 0.00 0.00 44 1009.8
20260506120934 21 0 0.0 0.0 0.00 0.00 0.00 43 1009.6
20260506120858 21 0 0.0 0.0 0.00 0.00 0.00 43 1009.8
20260506120832 21 0 0.0 0.0 0.00 0.00 0.00 43 1009.9
20260506120826 21 0 0.0 0.0 0.00 0.00 0.00 43 1009.9
20260506120748 21 0 0.0 0.0 0.00 0.00 0.00 43 1009.8
20260506120722 21 0 0.0 0.0 0.00 0.00 0.00 43 1009.8
20260506120715 21 0 0.0 0.0 0.00 0.00 0.00 43 1009.8
20260506120642 21 0 0.0 0.0 0.00 0.00 0.00 44 1009.8
20260506120616 21 0 0.0 0.0 0.00 0.00 0.00 44 1009.8
20260506120611 21 0 0.0 0.0 0.00 0.00 0.00 44 1009.8
20260506120546 21 0 0.0 0.0 0.00 0.00 0.00 44 1009.8
20260506120539 21 0 0.0 0.0 0.00 0.00 0.00 44 1009.8
20260506120514 21 0 0.0 0.0 0.00 0.00 0.00 44 1009.7
20260506120507 21 0 0.0 0.0 0.00 0.00 0.00 44 1009.7
20260506120431 22 0 0.0 0.0 0.00 0.00 0.00 43 1009.8
20260506120400 22 0 0.0 0.0 0.00 0.00 0.00 43 1009.7
20260506120353 22 0 0.0 0.0 0.00 0.00 0.00 43 1009.7
20260506120321 22 0 0.0 0.0 0.00 0.00 0.00 44 1009.8
20260506120253 22 0 0.0 0.0 0.00 0.00 0.00 43 1009.8
20260506120231 22 0 0.0 0.0 0.00 0.00 0.00 44 1009.7
20260506120225 22 0 0.0 0.0 0.00 0.00 0.00 44 1009.7
20260506120156 -17 0 0.0 0.0 0.00 0.00 0.00
20260506120149 22 0 0.0 0.0 0.00 0.00 0.00 44 1009.8
20260506120116 22 0 0.0 0.0 0.00 0.00 0.00 44 1009.8
20260506120051 22 0 0.0 0.0 0.00 0.00 0.00 44 1009.8
20260506120045 22 0 0.0 0.0 0.00 0.00 0.00 44 1009.8
20260506120015 22 0 0.0 0.0 0.00 0.00 0.00 44 1009.8
20260506120009 22 0 0.0 0.0 0.00 0.00 0.00 44 1009.8
20260506115933 21 0 0.0 0.0 0.00 0.00 0.00 45 1009.8
20260506115855 21 0 0.0 0.0 0.00 0.00 0.00 45 1009.8
20260506115829 21 0 0.0 0.0 0.00 0.00 0.00 45 1009.8
20260506115823 21 0 0.0 0.0 0.00 0.00 0.00 45 1009.8
20260506115749 21 0 0.0 0.0 0.00 0.00 0.00 45 1009.8
20260506115711 21 0 0.0 0.0 0.00 0.00 0.00 45 1009.8
20260506115639 21 0 0.0 0.0 0.00 0.00 0.00 45 1009.8
20260506115559 21 0 0.0 0.0 0.00 0.00 0.00 44 1009.8
20260506115523 21 0 0.0 0.0 0.00 0.00 0.00 46 1009.8
20260506115449 21 0 0.0 0.0 0.00 0.00 0.00 47 1009.7
20260506115417 21 0 0.0 0.0 0.00 0.00 0.00 48 1009.8
20260506115348 21 0 0.0 0.0 0.00 0.00 0.00 48 1009.8
20260506115341 21 0 0.0 0.0 0.00 0.00 0.00 48 1009.8
20260506115309 20 0 0.0 0.0 0.00 0.00 0.00 48 1009.9
20260506115306 20 0 0.0 0.0 0.00 0.00 0.00 48 1009.9
20260506115237 20 0 0.0 0.0 0.00 0.00 0.00 48 1009.9
20260506115231 20 0 0.0 0.0 0.00 0.00 0.00 48 1009.9
20260506115201 20 0 0.0 0.0 0.00 0.00 0.00 48 1009.8
20260506115129 20 0 0.0 0.0 0.00 0.00 0.00 47 1009.9
20260506115101 20 0 0.0 0.0 0.00 0.00 0.00 47 1009.9
20260506115055 20 0 0.0 0.0 0.00 0.00 0.00 47 1009.9
20260506115019 20 0 0.0 0.0 0.00 0.00 0.00 47 1009.9
20260506114943 20 0 0.0 0.0 0.00 0.00 0.00 46 1009.9
20260506114905 20 0 0.0 0.0 0.00 0.00 0.00 47 1010.0
20260506114835 20 0 0.0 0.0 0.00 0.00 0.00 47 1009.9
20260506114808 20 0 0.0 0.0 0.00 0.00 0.00 48 1009.9
20260506114804 20 0 0.0 0.0 0.00 0.00 0.00 48 1009.9
20260506114731 20 0 0.0 0.0 0.00 0.00 0.00 48 1009.9
20260506114655 20 0 0.0 0.0 0.00 0.00 0.00 47 1009.8
20260506114628 20 0 0.0 0.0 0.00 0.00 0.00 48 1009.8
20260506114621 20 0 0.0 0.0 0.00 0.00 0.00 48 1009.8
20260506114555 20 0 0.0 0.0 0.00 0.00 0.00 48 1009.8
20260506114549 20 0 0.0 0.0 0.00 0.00 0.00 48 1009.8
20260506114517 20 0 0.0 0.0 0.00 0.00 0.00 48 1009.8
20260506114436 20 0 0.0 0.0 0.00 0.00 0.00 48 1009.9
20260506114403 20 0 0.0 0.0 0.00 0.00 0.00 48 1009.9
20260506114330 20 0 0.0 0.0 0.00 0.00 0.00 48 1009.9
20260506114259 20 0 0.0 0.0 0.00 0.00 0.00 48 1009.9
20260506114233 20 0 0.0 0.0 0.00 0.00 0.00 48 1009.9
20260506114227 20 0 0.0 0.0 0.00 0.00 0.00 48 1009.9
20260506114149 20 0 0.0 0.0 0.00 0.00 0.00 48 1009.9
20260506114107 20 0 0.0 0.0 0.00 0.00 0.00 48 1009.9
20260506114039 20 0 0.0 0.0 0.00 0.00 0.00 48 1009.9
20260506114034 20 0 0.0 0.0 0.00 0.00 0.00 48 1009.9
20260506114003 20 0 0.0 0.0 0.00 0.00 0.00 48 1009.9
20260506113929 20 0 0.0 0.0 0.00 0.00 0.00 48 1009.9
20260506113853 20 0 0.0 0.0 0.00 0.00 0.00 49 1009.9
20260506113825 20 0 0.0 0.0 0.00 0.00 0.00 49 1009.9
20260506113819 20 0 0.0 0.0 0.00 0.00 0.00 49 1009.9
20260506113747 20 0 0.0 0.0 0.00 0.00 0.00 49 1009.9
20260506113721 20 0 0.0 0.0 0.00 0.00 0.00 49 1010.0
20260506113715 20 0 0.0 0.0 0.00 0.00 0.00 49 1010.0
20260506113647 20 0 0.0 0.0 0.00 0.00 0.00 48 1010.0
20260506113641 20 0 0.0 0.0 0.00 0.00 0.00 48 1010.0
20260506113609 20 0 0.0 0.0 0.00 0.00 0.00 48 1010.0
20260506113537 20 0 0.0 0.0 0.00 0.00 0.00 48 1009.9
20260506113507 20 0 0.0 0.0 0.00 0.00 0.00 48 1009.9
20260506113501 20 0 0.0 0.0 0.00 0.00 0.00 48 1009.9
20260506113435 20 0 0.0 0.0 0.00 0.00 0.00 48 1010.0
20260506113429 20 0 0.0 0.0 0.00 0.00 0.00 48 1010.0
20260506113403 20 0 0.0 0.0 0.00 0.00 0.00 48 1010.0
20260506113357 20 0 0.0 0.0 0.00 0.00 0.00 48 1010.0
20260506113325 20 0 0.0 0.0 0.00 0.00 0.00 48 1009.9
20260506113251 20 0 0.0 0.0 0.00 0.00 0.00 48 1010.0
20260506113229 20 0 0.0 0.0 0.00 0.00 0.00 48 1009.9
20260506113223 20 0 0.0 0.0 0.00 0.00 0.00 48 1009.9
20260506113200 20 0 0.0 0.0 0.00 0.00 0.00 48 1010.0
20260506113134 20 0 0.0 0.0 0.00 0.00 0.00 48 1009.9
20260506113113 20 0 0.0 0.0 0.00 0.00 0.00 48 1009.9
20260506113040 20 0 0.0 0.0 0.00 0.00 0.00 48 1009.9
20260506113015 20 0 0.0 0.0 0.00 0.00 0.00 48 1009.9
20260506113008 20 0 0.0 0.0 0.00 0.00 0.00 48 1009.9
20260506112941 20 0 0.0 0.0 0.00 0.00 0.00 48 1009.9
20260506112934 20 0 0.0 0.0 0.00 0.00 0.00 48 1009.9
20260506112910 20 0 0.0 0.0 0.00 0.00 0.00 48 1009.8
20260506112904 20 0 0.0 0.0 0.00 0.00 0.00 48 1009.8
20260506112834 20 0 0.0 0.0 0.00 0.00 0.00 49 1009.8
20260506112815 20 0 0.0 0.0 0.00 0.00 0.00 49 1009.9
20260506112808 20 0 0.0 0.0 0.00 0.00 0.00 49 1009.9
20260506112750 20 0 0.0 0.0 0.00 0.00 0.00 48 1009.9
20260506112744 20 0 0.0 0.0 0.00 0.00 0.00 48 1009.9
20260506112652 20 0 0.0 0.0 0.00 0.00 0.00 49 1009.9
20260506112646 20 0 0.0 0.0 0.00 0.00 0.00 49 1009.9
20260506112554 20 0 0.0 0.0 0.00 0.00 0.00 49 1009.9
20260506112548 20 0 0.0 0.0 0.00 0.00 0.00 49 1009.9
20260506112520 20 0 0.0 0.0 0.00 0.00 0.00 48 1009.9
20260506112454 20 0 0.0 0.0 0.00 0.00 0.00 48 1009.9
20260506112448 20 0 0.0 0.0 0.00 0.00 0.00 48 1009.9
20260506112426 20 0 0.0 0.0 0.00 0.00 0.00 48 1009.9
20260506112358 20 0 0.0 0.0 0.00 0.00 0.00 48 1009.9
20260506112352 20 0 0.0 0.0 0.00 0.00 0.00 48 1009.9
20260506112322 20 0 0.0 0.0 0.00 0.00 0.00 48 1009.9
20260506112238 20 0 0.0 0.0 0.00 0.00 0.00 48 1009.9
20260506112232 20 0 0.0 0.0 0.00 0.00 0.00 48 1009.9
20260506112210 20 0 0.0 0.0 0.00 0.00 0.00 48 1009.8
20260506112148 20 0 0.0 0.0 0.00 0.00 0.00 48 1009.9
20260506112142 20 0 0.0 0.0 0.00 0.00 0.00 48 1009.9
20260506112122 20 0 0.0 0.0 0.00 0.00 0.00 48 1010.0
20260506112116 20 0 0.0 0.0 0.00 0.00 0.00 48 1010.0
20260506112044 21 0 0.0 0.0 0.00 0.00 0.00 47 1010.0
20260506112022 21 0 0.0 0.0 0.00 0.00 0.00 47 1010.0
20260506111948 21 0 0.0 0.0 0.00 0.00 0.00 47 1010.0
20260506111918 21 0 0.0 0.0 0.00 0.00 0.00 47 1010.0
20260506111912 21 0 0.0 0.0 0.00 0.00 0.00 47 1010.0
20260506111826 21 0 0.0 0.0 0.00 0.00 0.00 46 1010.0
20260506111724 21 0 0.0 0.0 0.00 0.00 0.00 46 1010.0
20260506111700 21 0 0.0 0.0 0.00 0.00 0.00 48 1010.0
20260506111654 21 0 0.0 0.0 0.00 0.00 0.00 48 1010.0
20260506111628 21 0 0.0 0.0 0.00 0.00 0.00 48 1009.9
20260506111622 21 0 0.0 0.0 0.00 0.00 0.00 48 1009.9
20260506111558 21 0 0.0 0.0 0.00 0.00 0.00 48 1010.0
20260506111552 21 0 0.0 0.0 0.00 0.00 0.00 48 1010.0
20260506111520 21 0 0.0 0.0 0.00 0.00 0.00 47 1010.0
20260506111456 21 0 0.0 0.0 0.00 0.00 0.00 48 1010.0
20260506111450 21 0 0.0 0.0 0.00 0.00 0.00 48 1010.0
20260506111418 21 0 0.0 0.0 0.00 0.00 0.00 47 1010.0
20260506111346 21 0 0.0 0.0 0.00 0.00 0.00 46 1010.0
20260506111312 21 0 0.0 0.0 0.00 0.00 0.00 47 1010.0
20260506111240 21 0 0.0 0.0 0.00 0.00 0.00 46 1010.0
20260506111214 21 0 0.0 0.0 0.00 0.00 0.00 46 1010.1
20260506111142 21 0 0.0 0.0 0.00 0.00 0.00 46 1010.1
20260506111116 21 0 0.0 0.0 0.00 0.00 0.00 46 1010.1
20260506111110 21 0 0.0 0.0 0.00 0.00 0.00 46 1010.1
20260506111042 21 0 0.0 0.0 0.00 0.00 0.00 46 1010.1
20260506111036 21 0 0.0 0.0 0.00 0.00 0.00 46 1010.1
20260506111006 22 0 0.0 0.0 0.00 0.00 0.00 46 1010.1
20260506110934 22 0 0.0 0.0 0.00 0.00 0.00 46 1010.1
20260506110928 22 0 0.0 0.0 0.00 0.00 0.00 46 1010.1
20260506110854 22 0 0.0 0.0 0.00 0.00 0.00 46 1010.1
20260506110848 22 0 0.0 0.0 0.00 0.00 0.00 46 1010.1
20260506110824 22 0 0.0 0.0 0.00 0.00 0.00 46 1010.2
20260506110818 22 0 0.0 0.0 0.00 0.00 0.00 46 1010.2
20260506110748 22 0 0.0 0.0 0.00 0.00 0.00 45 1010.2
20260506110718 22 0 0.0 0.0 0.00 0.00 0.00 45 1010.2
20260506110712 22 0 0.0 0.0 0.00 0.00 0.00 45 1010.2
20260506110642 22 0 0.0 0.0 0.00 0.00 0.00 46 1010.2
20260506110612 22 0 0.0 0.0 0.00 0.00 0.00 46 1010.2
20260506110606 22 0 0.0 0.0 0.00 0.00 0.00 46 1010.2
20260506110540 22 0 0.0 0.0 0.00 0.00 0.00 45 1010.2
20260506110534 22 0 0.0 0.0 0.00 0.00 0.00 45 1010.2
20260506110508 22 0 0.0 0.0 0.00 0.00 0.00 45 1010.2
20260506110502 22 0 0.0 0.0 0.00 0.00 0.00 45 1010.2
20260506110426 22 0 0.0 0.0 0.00 0.00 0.00 45 1010.2
20260506110400 22 0 0.0 0.0 0.00 0.00 0.00 44 1010.3
20260506110354 22 0 0.0 0.0 0.00 0.00 0.00 44 1010.3
20260506110322 22 0 0.0 0.0 0.00 0.00 0.00 45 1010.2
20260506110246 22 0 0.0 0.0 0.00 0.00 0.00 44 1010.2
20260506110210 22 0 0.0 0.0 0.00 0.00 0.00 45 1010.2
20260506110142 22 0 0.0 0.0 0.00 0.00 0.00 44 1010.2
20260506110110 22 0 0.0 0.0 0.00 0.00 0.00 44 1010.2
20260506110046 22 0 0.0 0.0 0.00 0.00 0.00 44 1010.1
20260506110040 22 0 0.0 0.0 0.00 0.00 0.00 44 1010.1
20260506110014 22 0 0.0 0.0 0.00 0.00 0.00 44 1010.1
20260506105946 22 0 0.0 0.0 0.00 0.00 0.00 44 1010.1
20260506105939 22 0 0.0 0.0 0.00 0.00 0.00 44 1010.1
20260506105914 22 0 0.0 0.0 0.00 0.00 0.00 44 1010.2
20260506105907 22 0 0.0 0.0 0.00 0.00 0.00 44 1010.2
20260506105844 22 0 0.0 0.0 0.00 0.00 0.00 43 1010.1
20260506105838 22 0 0.0 0.0 0.00 0.00 0.00 43 1010.1
20260506105810 22 0 0.0 0.0 0.00 0.00 0.00 43 1010.1
20260506105804 22 0 0.0 0.0 0.00 0.00 0.00 43 1010.1
20260506105732 22 0 0.0 0.0 0.00 0.00 0.00 43 1010.2
20260506105725 22 0 0.0 0.0 0.00 0.00 0.00 43 1010.2
20260506105651 22 0 0.0 0.0 0.00 0.00 0.00 42 1010.2
20260506105630 22 0 0.0 0.0 0.00 0.00 0.00 43 1010.1
20260506105623 22 0 0.0 0.0 0.00 0.00 0.00 43 1010.1
20260506105521 22 0 0.0 0.0 0.00 0.00 0.00 43 1010.2
20260506105515 22 0 0.0 0.0 0.00 0.00 0.00 43 1010.2
20260506105448 22 0 0.0 0.0 0.00 0.00 0.00 43 1010.3
20260506105441 22 0 0.0 0.0 0.00 0.00 0.00 43 1010.3
20260506105412 23 0 0.0 0.0 0.00 0.00 0.00 43 101.0
20260506105405 23 0 0.0 0.0 0.00 0.00 0.00 43 1010.1
20260506105338 23 0 0.0 0.0 0.00 0.00 0.00 45 1010.3
20260506105331 23 0 0.0 0.0 0.00 0.00 0.00 45 1010.3
20260506105309 23 0 0.0 0.0 0.00 0.00 0.00 44 1010.2
20260506105305 23 0 0.0 0.0 0.00 0.00 0.00 44 1010.2
20260506105229 23 0 0.0 0.0 0.00 0.00 0.00 44 1010.2
20260506105203 23 0 0.0 0.0 0.00 0.00 0.00 45 1010.2
20260506105157 23 0 0.0 0.0 0.00 0.00 0.00 45 1010.2
20260506105125 23 0 0.0 0.0 0.00 0.00 0.00 44 1010.1
20260506105053 23 0 0.0 0.0 0.00 0.00 0.00 43 1010.2
20260506105047 23 0 0.0 0.0 0.00 0.00 0.00 43 1010.2
20260506105017 23 0 0.0 0.0 0.00 0.00 0.00 42 1010.2
20260506105011 23 0 0.0 0.0 0.00 0.00 0.00 42 1010.2
20260506104948 23 0 0.0 0.0 0.00 0.00 0.00 43 1010.3
20260506104941 23 0 0.0 0.0 0.00 0.00 0.00 43 1010.3
20260506104915 23 0 0.0 0.0 0.00 0.00 0.00 44 1010.2
20260506104909 23 0 0.0 0.0 0.00 0.00 0.00 44 1010.2
20260506104835 23 0 0.0 0.0 0.00 0.00 0.00 42 1010.2
20260506104759 23 0 0.0 0.0 0.00 0.00 0.00 43 1010.2
20260506104725 23 0 0.0 0.0 0.00 0.00 0.00 44 1010.2
20260506104645 22 0 0.0 0.0 0.00 0.00 0.00 44 1010.2
20260506104613 22 0 0.0 0.0 0.00 0.00 0.00 45 1010.3
20260506104545 22 0 0.0 0.0 0.00 0.00 0.00 44 1010.2
20260506104539 22 0 0.0 0.0 0.00 0.00 0.00 44 1010.2
20260506104507 22 0 0.0 0.0 0.00 0.00 0.00 43 1010.3
20260506104441 22 0 0.0 0.0 0.00 0.00 0.00 44 1010.2
20260506104435 22 0 0.0 0.0 0.00 0.00 0.00 44 1010.2
20260506104405 22 0 0.0 0.0 0.00 0.00 0.00 44 1010.3
20260506104359 22 0 0.0 0.0 0.00 0.00 0.00 44 1010.3
20260506104329 22 0 0.0 0.0 0.00 0.00 0.00 43 1010.3
20260506104255 22 0 0.0 0.0 0.00 0.00 0.00 43 1010.3
20260506104228 22 0 0.0 0.0 0.00 0.00 0.00 44 1010.4
20260506104221 22 0 0.0 0.0 0.00 0.00 0.00 44 1010.4
20260506104147 22 0 0.0 0.0 0.00 0.00 0.00 44 1010.3
20260506104117 22 0 0.0 0.0 0.00 0.00 0.00 45 1010.3
20260506104111 22 0 0.0 0.0 0.00 0.00 0.00 45 1010.3
20260506104045 23 0 0.0 0.0 0.00 0.00 0.00 44 1010.3
20260506104039 23 0 0.0 0.0 0.00 0.00 0.00 44 1010.3
20260506104011 23 0 0.0 0.0 0.00 0.00 0.00 44 1010.3
20260506104005 23 0 0.0 0.0 0.00 0.00 0.00 44 1010.3
20260506103933 23 0 0.0 0.0 0.00 0.00 0.00 44 1010.3
20260506103859 23 0 0.0 0.0 0.00 0.00 0.00 44 1010.3
20260506103829 23 0 0.0 0.0 0.00 0.00 0.00 45 1010.3
20260506103823 23 0 0.0 0.0 0.00 0.00 0.00 45 1010.3
20260506103755 23 0 0.0 0.0 0.00 0.00 0.00 45 1010.4
20260506103749 23 0 0.0 0.0 0.00 0.00 0.00 45 1010.4
20260506103723 23 0 0.0 0.0 0.00 0.00 0.00 45 1010.4
20260506103717 23 0 0.0 0.0 0.00 0.00 0.00 45 1010.4
20260506103643 22 0 0.0 0.0 0.00 0.00 0.00 45 1010.4
20260506103607 22 0 0.0 0.0 0.00 0.00 0.00 48 1010.4
20260506103535 22 0 0.0 0.0 0.00 0.00 0.00 47 1010.4
20260506103505 22 0 0.0 0.0 0.00 0.00 0.00 49 1010.4
20260506103459 22 0 0.0 0.0 0.00 0.00 0.00 49 1010.4
20260506103429 22 0 0.0 0.0 0.00 0.00 0.00 48 1010.4
20260506103423 22 0 0.0 0.0 0.00 0.00 0.00 48 1010.4
20260506103345 22 0 0.0 0.0 0.00 0.00 0.00 46 1010.4
20260506103313 22 0 0.0 0.0 0.00 0.00 0.00 47 1010.3
20260506103245 22 0 0.0 0.0 0.00 0.00 0.00 47 1010.4
20260506103239 22 0 0.0 0.0 0.00 0.00 0.00 47 1010.4
20260506103203 22 0 0.0 0.0 0.00 0.00 0.00 46 1010.4
20260506103133 22 0 0.0 0.0 0.00 0.00 0.00 47 1010.4
20260506103103 22 0 0.0 0.0 0.00 0.00 0.00 47 1010.4
20260506103057 22 0 0.0 0.0 0.00 0.00 0.00 47 1010.4
20260506103021 22 0 0.0 0.0 0.00 0.00 0.00 47 1010.5
20260506102951 22 0 0.0 0.0 0.00 0.00 0.00 48 1010.5
20260506102919 22 0 0.0 0.0 0.00 0.00 0.00 49 1010.5
20260506102913 22 0 0.0 0.0 0.00 0.00 0.00 49 1010.5
20260506102837 21 0 0.0 0.0 0.00 0.00 0.00 48 1010.5
20260506102801 21 0 0.0 0.0 0.00 0.00 0.00 47 1010.4
20260506102733 21 0 0.0 0.0 0.00 0.00 0.00 47 1010.4
20260506102727 21 0 0.0 0.0 0.00 0.00 0.00 47 1010.4
20260506102651 21 0 0.0 0.0 0.00 0.00 0.00 48 1010.5
20260506102621 21 0 0.0 0.0 0.00 0.00 0.00 49 1010.5
20260506102615 21 0 0.0 0.0 0.00 0.00 0.00 49 1010.5
20260506102538 21 0 0.0 0.0 0.00 0.00 0.00 49 1010.5
20260506102515 21 0 0.0 0.0 0.00 0.00 0.00 50 1010.6
20260506102509 21 0 0.0 0.0 0.00 0.00 0.00 50 1010.6
20260506102431 21 0 0.0 0.0 0.00 0.00 0.00 50 1010.6
20260506102402 21 0 0.0 0.0 0.00 0.00 0.00 50 1010.5
20260506102337 21 0 0.0 0.0 0.00 0.00 0.00 48 1010.5
20260506102330 21 0 0.0 0.0 0.00 0.00 0.00 48 1010.5
20260506102301 21 0 0.0 0.0 0.00 0.00 0.00 48 101.0
20260506102254 21 0 0.0 0.0 0.00 0.00 0.00 48 1010.6
20260506102210 21 0 0.0 0.0 0.00 0.00 0.00 48 1010.6
20260506102138 21 0 0.0 0.0 0.00 0.00 0.00 48 1010.6
20260506102112 21 0 0.0 0.0 0.00 0.00 0.00 46 1010.6
20260506102106 21 0 0.0 0.0 0.00 0.00 0.00 46 1010.6
20260506102039 21 0 0.0 0.0 0.00 0.00 0.00 47 1010.6
20260506102034 21 0 0.0 0.0 0.00 0.00 0.00 47 1010.6
20260506102002 21 0 0.0 0.0 0.00 0.00 0.00 46 1010.6
20260506101936 21 0 0.0 0.0 0.00 0.00 0.00 46 1010.6
20260506101930 21 0 0.0 0.0 0.00 0.00 0.00 46 1010.6
20260506101908 22 0 0.0 0.0 0.00 0.00 0.00 46 1010.5
20260506101902 22 0 0.0 0.0 0.00 0.00 0.00 46 1010.5
20260506101836 22 0 0.0 0.0 0.00 0.00 0.00 46 1010.5
20260506101830 22 0 0.0 0.0 0.00 0.00 0.00 46 1010.5
20260506101752 22 0 0.0 0.0 0.00 0.00 0.00 47 1010.6
20260506101720 21 0 0.0 0.0 0.00 0.00 0.00 49 1010.6
20260506101714 21 0 0.0 0.0 0.00 0.00 0.00 49 1010.6
20260506101648 21 0 0.0 0.0 0.00 0.00 0.00 49 1010.6
20260506101642 21 0 0.0 0.0 0.00 0.00 0.00 49 1010.6
20260506101606 21 0 0.0 0.0 0.00 0.00 0.00 49 1010.5
20260506101537 21 0 0.0 0.0 0.00 0.00 0.00 49 1010.5
20260506101530 21 0 0.0 0.0 0.00 0.00 0.00 49 1010.5
20260506101458 21 0 0.0 0.0 0.00 0.00 0.00 49 1010.5
20260506101434 21 0 0.0 0.0 0.00 0.00 0.00 50 1010.5
20260506101428 21 0 0.0 0.0 0.00 0.00 0.00 50 1010.5
20260506101402 21 0 0.0 0.0 0.00 0.00 0.00 49 1010.5
20260506101326 21 0 0.0 0.0 0.00 0.00 0.00 49 1010.5
20260506101300 21 0 0.0 0.0 0.00 0.00 0.00 48 1010.5
20260506101254 21 0 0.0 0.0 0.00 0.00 0.00 48 1010.5
20260506101226 21 0 0.0 0.0 0.00 0.00 0.00 48 1010.5
20260506101220 21 0 0.0 0.0 0.00 0.00 0.00 48 1010.5
20260506101152 21 0 0.0 0.0 0.00 0.00 0.00 50 1010.5
20260506101146 21 0 0.0 0.0 0.00 0.00 0.00 50 1010.5
20260506101114 21 0 0.0 0.0 0.00 0.00 0.00 51 1010.5
20260506101040 21 0 0.0 0.0 0.00 0.00 0.00 50 1010.5
20260506101034 21 0 0.0 0.0 0.00 0.00 0.00 50 1010.5
20260506101004 20 0 0.0 0.0 0.00 0.00 0.00 51 1010.5
20260506100958 20 0 0.0 0.0 0.00 0.00 0.00 51 1010.5
20260506100924 20 0 0.0 0.0 0.00 0.00 0.00 51 1010.5
20260506100918 20 0 0.0 0.0 0.00 0.00 0.00 51 1010.5
20260506100848 20 0 0.0 0.0 0.00 0.00 0.00 50 1010.5
20260506100842 20 0 0.0 0.0 0.00 0.00 0.00 50 1010.5
20260506100818 20 0 0.0 0.0 0.00 0.00 0.00 50 1010.6
20260506100812 20 0 0.0 0.0 0.00 0.00 0.00 50 1010.6
20260506100741 20 0 0.0 0.0 0.00 0.00 0.00 51 1010.6
20260506100702 21 0 0.0 0.0 0.00 0.00 0.00 50 1010.5
20260506100630 21 0 0.0 0.0 0.00 0.00 0.00 50 1010.4
20260506100603 21 0 0.0 0.0 0.00 0.00 0.00 49 1010.5
20260506100556 21 0 0.0 0.0 0.00 0.00 0.00 49 1010.5
20260506100532 21 0 0.0 0.0 0.00 0.00 0.00 50 1010.5
20260506100526 21 0 0.0 0.0 0.00 0.00 0.00 50 1010.5
20260506100456 21 0 0.0 0.0 0.00 0.00 0.00 50 1010.6
20260506100433 21 0 0.0 0.0 0.00 0.00 0.00 49 1010.6
20260506100426 21 0 0.0 0.0 0.00 0.00 0.00 49 1010.6
20260506100420 21 0 0.0 0.0 0.00 0.00 0.00 49 1010.6
20260506100358 21 0 0.0 0.0 0.00 0.00 0.00 51 1010.6
20260506100352 21 0 0.0 0.0 0.00 0.00 0.00 51 1010.6
20260506100322 21 0 0.0 0.0 0.00 0.00 0.00 50 1010.6
20260506100254 21 0 0.0 0.0 0.00 0.00 0.00 50 1010.6
20260506100248 21 0 0.0 0.0 0.00 0.00 0.00 50 1010.6
20260506100212 21 0 0.0 0.0 0.00 0.00 0.00 49 1010.7
20260506100142 21 0 0.0 0.0 0.00 0.00 0.00 49 1010.7
20260506100136 21 0 0.0 0.0 0.00 0.00 0.00 49 1010.7
20260506100044 21 0 0.0 0.0 0.00 0.00 0.00 49 1010.7
20260506100038 21 0 0.0 0.0 0.00 0.00 0.00 49 1010.7
20260506100006 21 0 0.0 0.0 0.00 0.00 0.00 49 1010.7
20260506100000 21 0 0.0 0.0 0.00 0.00 0.00 49 1010.7
20260506095928 21 0 0.0 0.0 0.00 0.00 0.00 49 1010.8
20260506095858 21 0 0.0 0.0 0.00 0.00 0.00 49 1010.7
20260506095852 21 0 0.0 0.0 0.00 0.00 0.00 49 1010.7
20260506095821 21 0 0.0 0.0 0.00 0.00 0.00 49
20260506095814 21 0 0.0 0.0 0.00 0.00 0.00 49 1010.7
20260506095742 21 0 0.0 0.0 0.00 0.00 0.00 53 1010.7
20260506095714 21 0 0.0 0.0 0.00 0.00 0.00 53 1010.6
20260506095708 21 0 0.0 0.0 0.00 0.00 0.00 53 1010.6
20260506095642 21 0 0.0 0.0 0.00 0.00 0.00 53 1010.6
20260506095636 21 0 0.0 0.0 0.00 0.00 0.00 53 1010.6
20260506095602 21 0 0.0 0.0 0.00 0.00 0.00 52 1010.7
20260506095524 21 0 0.0 0.0 0.00 0.00 0.00 51 1010.6
20260506095452 20 0 0.0 0.0 0.00 0.00 0.00 51 1010.7
20260506095446 20 0 0.0 0.0 0.00 0.00 0.00 51 1010.7
20260506095422 20 0 0.0 0.0 0.00 0.00 0.00 50 1010.7
20260506095416 20 0 0.0 0.0 0.00 0.00 0.00 50 1010.7
20260506095346 20 0 0.0 0.0 0.00 0.00 0.00 50 1010.8
20260506095340 20 0 0.0 0.0 0.00 0.00 0.00 50 1010.8
20260506095312 20 0 0.0 0.0 0.00 0.00 0.00 51 1010.7
20260506095306 20 0 0.0 0.0 0.00 0.00 0.00 51 1010.7
20260506095240 20 0 0.0 0.0 0.00 0.00 0.00 52 1010.8
20260506095234 20 0 0.0 0.0 0.00 0.00 0.00 52 1010.8
20260506095158 20 0 0.0 0.0 0.00 0.00 0.00 51 1010.7
20260506095122 20 0 0.0 0.0 0.00 0.00 0.00 50 1010.7
20260506095042 20 0 0.0 0.0 0.00 0.00 0.00 51 1010.8
20260506095018 21 0 0.0 0.0 0.00 0.00 0.00 51 1010.7
20260506095011 21 0 0.0 0.0 0.00 0.00 0.00 51 1010.7
20260506094936 -17 0 0.0 0.0 0.00 0.00 0.00
20260506094929 21 0 0.0 0.0 0.00 0.00 0.00 50 1010.6
20260506094901 21 0 0.0 0.0 0.00 0.00 0.00 50 1010.7
20260506094842 21 0 0.0 0.0 0.00 0.00 0.00 50 1010.7
20260506094835 21 0 0.0 0.0 0.00 0.00 0.00 50 1010.7
20260506094802 21 0 0.0 0.0 0.00 0.00 0.00 50 1010.7
20260506094742 21 0 0.0 0.0 0.00 0.00 0.00 51 1010.8
20260506094735 21 0 0.0 0.0 0.00 0.00 0.00 51 1010.8
20260506094701 21 0 0.0 0.0 0.00 0.00 0.00 51 1010.8
20260506094636 21 0 0.0 0.0 0.00 0.00 0.00 50
20260506094629 21 0 0.0 0.0 0.00 0.00 0.00 50 1010.8
20260506094556 21 0 0.0 0.0 0.00 0.00 0.00 50 1010.7
20260506094521 21 0 0.0 0.0 0.00 0.00 0.00 50 1010.7
20260506094451 21 0 0.0 0.0 0.00 0.00 0.00 49 1010.7
20260506094445 21 0 0.0 0.0 0.00 0.00 0.00 49 1010.7
20260506094411 21 0 0.0 0.0 0.00 0.00 0.00 51 1010.8
20260506094258 21 0 0.0 0.0 0.00 0.00 0.00 51 1010.7
20260506094211 21 0 0.0 0.0 0.00 0.00 0.00 50 1010.7
20260506094205 21 0 0.0 0.0 0.00 0.00 0.00 50 1010.7
20260506094129 21 0 0.0 0.0 0.00 0.00 0.00 50 1010.7
20260506094055 21 0 0.0 0.0 0.00 0.00 0.00 50 1010.8
20260506094021 21 0 0.0 0.0 0.00 0.00 0.00 50 1010.7
20260506093949 21 0 0.0 0.0 0.00 0.00 0.00 51 1010.7
20260506093943 21 0 0.0 0.0 0.00 0.00 0.00 51 1010.7
20260506093911 21 0 0.0 0.0 0.00 0.00 0.00 51 1010.7
20260506093841 21 0 0.0 0.0 0.00 0.00 0.00 52 1010.6
20260506093835 21 0 0.0 0.0 0.00 0.00 0.00 52 1010.6
20260506093805 21 0 0.0 0.0 0.00 0.00 0.00 51 1010.6
20260506093759 21 0 0.0 0.0 0.00 0.00 0.00 51 1010.6
20260506093727 21 0 0.0 0.0 0.00 0.00 0.00 52 1010.7
20260506093659 21 0 0.0 0.0 0.00 0.00 0.00 53 1010.7
20260506093653 21 0 0.0 0.0 0.00 0.00 0.00 53 1010.7
20260506093625 21 0 0.0 0.0 0.00 0.00 0.00 52 1010.6
20260506093619 21 0 0.0 0.0 0.00 0.00 0.00 52 1010.6
20260506093545 21 0 0.0 0.0 0.00 0.00 0.00 54 1010.7
20260506093539 21 0 0.0 0.0 0.00 0.00 0.00 54 1010.7
20260506093513 21 0 0.0 0.0 0.00 0.00 0.00 53 1010.7
20260506093507 21 0 0.0 0.0 0.00 0.00 0.00 53 1010.7
20260506093441 21 0 0.0 0.0 0.00 0.00 0.00 53 1010.7
20260506093435 21 0 0.0 0.0 0.00 0.00 0.00 53 1010.7
20260506093401 20 0 0.0 0.0 0.00 0.00 0.00 53 1010.7
20260506093323 20 0 0.0 0.0 0.00 0.00 0.00 55 1010.8
20260506093253 20 0 0.0 0.0 0.00 0.00 0.00 54 1010.8
20260506093247 20 0 0.0 0.0 0.00 0.00 0.00 54 1010.8
20260506093215 20 0 0.0 0.0 0.00 0.00 0.00 55 1010.8
20260506093209 20 0 0.0 0.0 0.00 0.00 0.00 55 1010.8
20260506093123 20 0 0.0 0.0 0.00 0.00 0.00 56 1010.7
20260506093117 20 0 0.0 0.0 0.00 0.00 0.00 56 1010.7
20260506093045 20 0 0.0 0.0 0.00 0.00 0.00 57 1010.8
20260506093023 20 0 0.0 0.0 0.00 0.00 0.00 56 1010.7
20260506093017 20 0 0.0 0.0 0.00 0.00 0.00 56 1010.7
20260506092945 20 0 0.0 0.0 0.00 0.00 0.00 56 1010.7
20260506092939 20 0 0.0 0.0 0.00 0.00 0.00 56 1010.7
20260506092901 20 0 0.0 0.0 0.00 0.00 0.00 55 1010.7
20260506092835 20 0 0.0 0.0 0.00 0.00 0.00 56 1010.8
20260506092829 20 0 0.0 0.0 0.00 0.00 0.00 56 1010.8
20260506092749 20 0 0.0 0.0 0.00 0.00 0.00 56 1010.8
20260506092721 20 0 0.0 0.0 0.00 0.00 0.00 55 1010.7
20260506092715 20 0 0.0 0.0 0.00 0.00 0.00 55 1010.7
20260506092639 20 0 0.0 0.0 0.00 0.00 0.00 55 1010.8
20260506092619 20 0 0.0 0.0 0.00 0.00 0.00 55 1010.7
20260506092613 20 0 0.0 0.0 0.00 0.00 0.00 55 1010.7
20260506092548 21 0 0.0 0.0 0.00 0.00 0.00 55 1010.7
20260506092523 21 0 0.0 0.0 0.00 0.00 0.00 55 1010.7
20260506092517 21 0 0.0 0.0 0.00 0.00 0.00 55 1010.7
20260506092447 21 0 0.0 0.0 0.00 0.00 0.00 57 1010.7
20260506092441 21 0 0.0 0.0 0.00 0.00 0.00 57 1010.7
20260506092412 20 0 0.0 0.0 0.00 0.00 0.00 58 1010.7
20260506092405 20 0 0.0 0.0 0.00 0.00 0.00 58 1010.7
20260506092339 20 0 0.0 0.0 0.00 0.00 0.00 58 1010.7
20260506092333 20 0 0.0 0.0 0.00 0.00 0.00 58 1010.7
20260506092301 20 0 0.0 0.0 0.00 0.00 0.00 58 1010.7
20260506092255 20 0 0.0 0.0 0.00 0.00 0.00 58 1010.7
20260506092225 20 0 0.0 0.0 0.00 0.00 0.00 58 1010.7
20260506092219 20 0 0.0 0.0 0.00 0.00 0.00 58 1010.7
20260506092145 20 0 0.0 0.0 0.00 0.00 0.00 56 1010.7
20260506092139 20 0 0.0 0.0 0.00 0.00 0.00 56 1010.7
20260506092057 20 0 0.0 0.0 0.00 0.00 0.00 55 1010.7
20260506092025 20 0 0.0 0.0 0.00 0.00 0.00 56 1010.7
20260506091939 20 0 0.0 0.0 0.00 0.00 0.00 56 1010.7
20260506091933 20 0 0.0 0.0 0.00 0.00 0.00 56 1010.7
20260506091905 20 0 0.0 0.0 0.00 0.00 0.00 55 1010.7
20260506091845 20 0 0.0 0.0 0.00 0.00 0.00 54 1010.7
20260506091839 20 0 0.0 0.0 0.00 0.00 0.00 54 1010.7
20260506091803 20 0 0.0 0.0 0.00 0.00 0.00 56 1010.7
20260506091737 20 0 0.0 0.0 0.00 0.00 0.00 55 1010.7
20260506091731 20 0 0.0 0.0 0.00 0.00 0.00 55 1010.7
20260506091659 20 0 0.0 0.0 0.00 0.00 0.00 55 1010.8
20260506091652 20 0 0.0 0.0 0.00 0.00 0.00 55 1010.8
20260506091611 20 0 0.0 0.0 0.00 0.00 0.00 54 1010.7
20260506091547 20 0 0.0 0.0 0.00 0.00 0.00 55 1010.7
20260506091540 20 0 0.0 0.0 0.00 0.00 0.00 55 1010.7
20260506091517 20 0 0.0 0.0 0.00 0.00 0.00 56 1010.8
20260506091510 20 0 0.0 0.0 0.00 0.00 0.00 56 1010.8
20260506091439 20 0 0.0 0.0 0.00 0.00 0.00 55 1010.7
20260506091413 20 0 0.0 0.0 0.00 0.00 0.00 56 1010.7
20260506091406 20 0 0.0 0.0 0.00 0.00 0.00 56 1010.7
20260506091336 20 0 0.0 0.0 0.00 0.00 0.00 54 1010.6
20260506091312 20 0 0.0 0.0 0.00 0.00 0.00 53 1010.7
20260506091236 20 0 0.0 0.0 0.00 0.00 0.00 56 1010.7
20260506091200 20 0 0.0 0.0 0.00 0.00 0.00 56 1010.7
20260506091122 20 0 0.0 0.0 0.00 0.00 0.00 55 1010.7
20260506091053 20 0 0.0 0.0 0.00 0.00 0.00 54 1010.7
20260506091046 20 0 0.0 0.0 0.00 0.00 0.00 54 1010.7
20260506091002 20 0 0.0 0.0 0.00 0.00 0.00 54 1010.7
20260506090930 20 0 0.0 0.0 0.00 0.00 0.00 54 1010.7
20260506090856 20 0 0.0 0.0 0.00 0.00 0.00 53 1010.8
20260506090850 20 0 0.0 0.0 0.00 0.00 0.00 53 1010.8
20260506090816 20 0 0.0 0.0 0.00 0.00 0.00 53 1010.7
20260506090749 20 0 0.0 0.0 0.00 0.00 0.00 54 101.0
20260506090742 20 0 0.0 0.0 0.00 0.00 0.00 54 1010.7
20260506090714 20 0 0.0 0.0 0.00 0.00 0.00 53 1010.7
20260506090708 20 0 0.0 0.0 0.00 0.00 0.00 53 1010.7
20260506090637 20 0 0.0 0.0 0.00 0.00 0.00 53 101.0
20260506090630 20 0 0.0 0.0 0.00 0.00 0.00 53 1010.6
20260506090600 20 0 0.0 0.0 0.00 0.00 0.00 54 1010.7
20260506090554 20 0 0.0 0.0 0.00 0.00 0.00 54 1010.7
20260506090524 20 0 0.0 0.0 0.00 0.00 0.00 56 1010.7
20260506090517 20 0 0.0 0.0 0.00 0.00 0.00 56 1010.7
20260506090446 20 0 0.0 0.0 0.00 0.00 0.00 54 1010.7
20260506090418 20 0 0.0 0.0 0.00 0.00 0.00 53 1010.7
20260506090412 20 0 0.0 0.0 0.00 0.00 0.00 53 1010.7
20260506090336 20 0 0.0 0.0 0.00 0.00 0.00 53 1010.6
20260506090300 20 0 0.0 0.0 0.00 0.00 0.00 53 1010.6
20260506090238 20 0 0.0 0.0 0.00 0.00 0.00 53 1010.7
20260506090232 20 0 0.0 0.0 0.00 0.00 0.00 53 1010.7
20260506090154 20 0 0.0 0.0 0.00 0.00 0.00 54 1010.7
20260506090120 20 0 0.0 0.0 0.00 0.00 0.00 54 1010.7
20260506090056 20 0 0.0 0.0 0.00 0.00 0.00 53 1010.7
20260506090050 20 0 0.0 0.0 0.00 0.00 0.00 53 1010.7
20260506090016 20 0 0.0 0.0 0.00 0.00 0.00 53 1010.7
20260506085948 20 0 0.0 0.0 0.00 0.00 0.00 53 1010.7
20260506085942 20 0 0.0 0.0 0.00 0.00 0.00 53 1010.7
20260506085910 20 0 0.0 0.0 0.00 0.00 0.00 52 1010.7
20260506085834 21 0 0.0 0.0 0.00 0.00 0.00 55 1010.6
20260506085800 20 0 0.0 0.0 0.00 0.00 0.00 55 1010.6
20260506085730 21 0 0.0 0.0 0.00 0.00 0.00 54 1010.6
20260506085724 21 0 0.0 0.0 0.00 0.00 0.00 54 1010.6
20260506085652 20 0 0.0 0.0 0.00 0.00 0.00 56 1010.6
20260506085622 20 0 0.0 0.0 0.00 0.00 0.00 55 1010.6
20260506085616 20 0 0.0 0.0 0.00 0.00 0.00 55 1010.6
20260506085546 20 0 0.0 0.0 0.00 0.00 0.00 55 1010.7
20260506085540 20 0 0.0 0.0 0.00 0.00 0.00 55 1010.7
20260506085510 20 0 0.0 0.0 0.00 0.00 0.00 57 1010.7
20260506085504 20 0 0.0 0.0 0.00 0.00 0.00 57 1010.7
20260506085436 20 0 0.0 0.0 0.00 0.00 0.00 59 1010.7
20260506085430 20 0 0.0 0.0 0.00 0.00 0.00 59 1010.7
20260506085358 20 0 0.0 0.0 0.00 0.00 0.00 60 1010.7
20260506085324 20 0 0.0 0.0 0.00 0.00 0.00 60 1010.6
20260506085256 20 0 0.0 0.0 0.00 0.00 0.00 59 1010.6
20260506085250 20 0 0.0 0.0 0.00 0.00 0.00 59 1010.6
20260506085220 20 0 0.0 0.0 0.00 0.00 0.00 60 1010.6
20260506085214 20 0 0.0 0.0 0.00 0.00 0.00 60 1010.6
20260506085142 19 0 0.0 0.0 0.00 0.00 0.00 59 1010.6
20260506085136 19 0 0.0 0.0 0.00 0.00 0.00 59 1010.6
20260506085058 19 0 0.0 0.0 0.00 0.00 0.00 59 1010.6
20260506085024 19 0 0.0 0.0 0.00 0.00 0.00 59 1010.6
20260506085002 19 0 0.0 0.0 0.00 0.00 0.00 61 1010.6
20260506084956 19 0 0.0 0.0 0.00 0.00 0.00 61 1010.6
20260506084934 19 0 0.0 0.0 0.00 0.00 0.00 60 1010.6
20260506084928 19 0 0.0 0.0 0.00 0.00 0.00 60 1010.6
20260506084850 19 0 0.0 0.0 0.00 0.00 0.00 59 1010.6
20260506084812 18 0 0.0 0.0 0.00 0.00 0.00 60 1010.6
20260506084746 18 0 0.0 0.0 0.00 0.00 0.00 60 1010.6
20260506084740 18 0 0.0 0.0 0.00 0.00 0.00 60 1010.6
20260506084706 18 0 0.0 0.0 0.00 0.00 0.00 61 1010.6
20260506084700 18 0 0.0 0.0 0.00 0.00 0.00 61 1010.6
20260506084630 18 0 0.0 0.0 0.00 0.00 0.00 60 1010.6
20260506084558 18 0 0.0 0.0 0.00 0.00 0.00 60 1010.7
20260506084524 18 0 0.0 0.0 0.00 0.00 0.00 62 1010.7
20260506084442 18 0 0.0 0.0 0.00 0.00 0.00 61 1010.7
20260506084418 18 0 0.0 0.0 0.00 0.00 0.00 61 1010.7
20260506084412 18 0 0.0 0.0 0.00 0.00 0.00 61 1010.7
20260506084344 18 0 0.0 0.0 0.00 0.00 0.00 61 1010.7
20260506084337 18 0 0.0 0.0 0.00 0.00 0.00 61 1010.7
20260506084306 18 0 0.0 0.0 0.00 0.00 0.00 63 1010.7
20260506084244 18 0 0.0 0.0 0.00 0.00 0.00 66 1010.7
20260506084237 18 0 0.0 0.0 0.00 0.00 0.00 66 1010.7
20260506084214 18 0 0.0 0.0 0.00 0.00 0.00 65 1010.7
20260506084144 18 0 0.0 0.0 0.00 0.00 0.00 65 1010.7
20260506084137 18 0 0.0 0.0 0.00 0.00 0.00 65 1010.7
20260506084110 18 0 0.0 0.0 0.00 0.00 0.00 68 1010.7
20260506084103 18 0 0.0 0.0 0.00 0.00 0.00 68 1010.7
20260506084032 18 0 0.0 0.0 0.00 0.00 0.00 66 1010.7
20260506084025 18 0 0.0 0.0 0.00 0.00 0.00 66 1010.7
20260506083956 18 0 0.0 0.0 0.00 0.00 0.00 66 1010.8
20260506083949 18 0 0.0 0.0 0.00 0.00 0.00 66 1010.8
20260506083913 17 0 0.0 0.0 0.00 0.00 0.00 67 1010.8
20260506083833 17 0 0.0 0.0 0.00 0.00 0.00 65 1010.7
20260506083747 18 0 0.0 0.0 0.00 0.00 0.00 65 1010.8
20260506083716 18 0 0.0 0.0 0.00 0.00 0.00 65 1010.7
20260506083709 18 0 0.0 0.0 0.00 0.00 0.00 65 1010.7
20260506083645 18 0 0.0 0.0 0.00 0.00 0.00 67 1010.7
20260506083630 18 0 0.0 0.0 0.00 0.00 0.00 66 1010.7
20260506083609 18 0 0.0 0.0 0.00 0.00 0.00 66 1010.7
20260506083603 18 0 0.0 0.0 0.00 0.00 0.00 66 1010.7
20260506083533 18 0 0.0 0.0 0.00 0.00 0.00 67 1010.8
20260506083527 18 0 0.0 0.0 0.00 0.00 0.00 67 1010.8
20260506083455 17 0 0.0 0.0 0.00 0.00 0.00 66 1010.7
20260506083449 17 0 0.0 0.0 0.00 0.00 0.00 66 1010.7
20260506083403 17 0 0.0 0.0 0.00 0.00 0.00 64 1010.7
20260506083329 18 0 0.0 0.0 0.00 0.00 0.00 64 1010.8
20260506083308 18 0 0.0 0.0 0.00 0.00 0.00 63 1010.8
20260506083235 18 0 0.0 0.0 0.00 0.00 0.00 63 1010.8
20260506083153 18 0 0.0 0.0 0.00 0.00 0.00 62 1010.8
20260506083147 18 0 0.0 0.0 0.00 0.00 0.00 62 1010.8
20260506083121 18 0 0.0 0.0 0.00 0.00 0.00 61 1010.7
20260506083041 18 0 0.0 0.0 0.00 0.00 0.00 59 1010.8
20260506083021 19 0 0.0 0.0 0.00 0.00 0.00 58 1010.8
20260506082957 19 0 0.0 0.0 0.00 0.00 0.00 57 1010.8
20260506082951 19 0 0.0 0.0 0.00 0.00 0.00 57 1010.8
20260506082931 20 0 0.0 0.0 0.00 0.00 0.00 56 1010.8
20260506082925 20 0 0.0 0.0 0.00 0.00 0.00 56 1010.8
20260506082901 20 0 0.0 0.0 0.00 0.00 0.00 55 1010.8
20260506082848 20 0 0.0 0.0 0.00 0.00 0.00 55 1010.8
20260506082841 20 0 0.0 0.0 0.00 0.00 0.00 55 1010.8
20260506082807 20 0 0.0 0.0 0.00 0.00 0.00 55 1010.8
20260506082731 20 0 0.0 0.0 0.00 0.00 0.00 54 1010.8
20260506082657 20 0 0.0 0.0 0.00 0.00 0.00 53 1010.9
20260506082623 20 0 0.0 0.0 0.00 0.00 0.00 56 1010.9
20260506082548 20 0 0.0 0.0 0.00 0.00 0.00 57 1010.8
20260506082541 20 0 0.0 0.0 0.00 0.00 0.00 57 1010.8
20260506082523 20 0 0.0 0.0 0.00 0.00 0.00 56 1010.9
20260506082517 20 0 0.0 0.0 0.00 0.00 0.00 56 1010.9
20260506082441 20 0 0.0 0.0 0.00 0.00 0.00 58 1010.8
20260506082415 20 0 0.0 0.0 0.00 0.00 0.00 56 1010.9
20260506082409 20 0 0.0 0.0 0.00 0.00 0.00 56 1010.9
20260506082341 20 0 0.0 0.0 0.00 0.00 0.00 57 1010.9
20260506082335 20 0 0.0 0.0 0.00 0.00 0.00 57 1010.9
20260506082257 20 0 0.0 0.0 0.00 0.00 0.00 59 1010.9
20260506082221 20 0 0.0 0.0 0.00 0.00 0.00 60 1010.9
20260506082153 20 0 0.0 0.0 0.00 0.00 0.00 61 1010.9
20260506082147 20 0 0.0 0.0 0.00 0.00 0.00 61 1010.9
20260506082119 19 0 0.0 0.0 0.00 0.00 0.00 65 1010.9
20260506082113 19 0 0.0 0.0 0.00 0.00 0.00 65 1010.9
20260506082056 18 0 0.0 0.0 0.00 0.00 0.00 67 1010.8
20260506082037 19 0 0.0 0.0 0.00 0.00 0.00 65 1010.9
20260506081959 18 0 0.0 0.0 0.00 0.00 0.00 67 1010.8
20260506081931 18 0 0.0 0.0 0.00 0.00 0.00 66 1010.9
20260506081925 18 0 0.0 0.0 0.00 0.00 0.00 66 1010.9
20260506081851 18 0 0.0 0.0 0.00 0.00 0.00 66 1010.9
20260506081819 18 0 0.0 0.0 0.00 0.00 0.00 65 1011.0
20260506081813 18 0 0.0 0.0 0.00 0.00 0.00 65 1011.0
20260506081735 18 0 0.0 0.0 0.00 0.00 0.00 66 1010.9
20260506081705 17 0 0.0 0.0 0.00 0.00 0.00 65 1010.9
20260506081659 17 0 0.0 0.0 0.00 0.00 0.00 65 1010.9
20260506081621 17 0 0.0 0.0 0.00 0.00 0.00 64 1010.9
20260506081545 18 0 0.0 0.0 0.00 0.00 0.00 62 1010.9
20260506081539 18 0 0.0 0.0 0.00 0.00 0.00 62 1010.9
20260506081519 18 0 0.0 0.0 0.00 0.00 0.00 61 1010.9
20260506081513 18 0 0.0 0.0 0.00 0.00 0.00 61 1010.9
20260506081443 18 0 0.0 0.0 0.00 0.00 0.00 60 1010.8
20260506081423 18 0 0.0 0.0 0.00 0.00 0.00 59 1010.8
20260506081417 18 0 0.0 0.0 0.00 0.00 0.00 59 1010.8
20260506081401 18 0 0.0 0.0 0.00 0.00 0.00 57 1010.9
20260506081355 18 0 0.0 0.0 0.00 0.00 0.00 57 1010.9
20260506081331 19 0 0.0 0.0 0.00 0.00 0.00 59 1010.8
20260506081325 19 0 0.0 0.0 0.00 0.00 0.00 59 1010.8
20260506081253 19 0 0.0 0.0 0.00 0.00 0.00 58 1010.8
20260506081219 19 0 0.0 0.0 0.00 0.00 0.00 61 1010.9
20260506081149 19 0 0.0 0.0 0.00 0.00 0.00 61 1010.8
20260506081142 19 0 0.0 0.0 0.00 0.00 0.00 61 1010.8
20260506081107 18 0 0.0 0.0 0.00 0.00 0.00 62 1010.9
20260506081033 18 0 0.0 0.0 0.00 0.00 0.00 63 1010.8
20260506081003 18 0 0.0 0.0 0.00 0.00 0.00 60 1010.8
20260506080957 18 0 0.0 0.0 0.00 0.00 0.00 60 1010.8
20260506080927 18 0 0.0 0.0 0.00 0.00 0.00 60 1010.9
20260506080920 18 0 0.0 0.0 0.00 0.00 0.00 60 1010.9
20260506080847 18 0 0.0 0.0 0.00 0.00 0.00 60 1010.9
20260506080840 18 0 0.0 0.0 0.00 0.00 0.00 60 1010.9
20260506080809 18 0 0.0 0.0 0.00 0.00 0.00 59 1010.8
20260506080802 18 0 0.0 0.0 0.00 0.00 0.00 59 1010.8
20260506080729 18 0 0.0 0.0 0.00 0.00 0.00 58 1010.9
20260506080703 18 0 0.0 0.0 0.00 0.00 0.00 58 1010.9
20260506080657 18 0 0.0 0.0 0.00 0.00 0.00 58 1010.9
20260506080631 19 0 0.0 0.0 0.00 0.00 0.00 58 1010.9
20260506080624 19 0 0.0 0.0 0.00 0.00 0.00 58 1010.9
20260506080559 19 0 0.0 0.0 0.00 0.00 0.00 58 1010.9
20260506080552 19 0 0.0 0.0 0.00 0.00 0.00 58 1010.9
20260506080523 19 0 0.0 0.0 0.00 0.00 0.00 57 1010.9
20260506080516 19 0 0.0 0.0 0.00 0.00 0.00 57 1010.9
20260506080449 19 0 0.0 0.0 0.00 0.00 0.00 57 1010.9
20260506080442 19 0 0.0 0.0 0.00 0.00 0.00 57 1010.9
20260506080415 19 0 0.0 0.0 0.00 0.00 0.00 57 1010.8
20260506080408 19 0 0.0 0.0 0.00 0.00 0.00 57 1010.8
20260506080335 19 0 0.0 0.0 0.00 0.00 0.00 59 1010.8
20260506080329 19 0 0.0 0.0 0.00 0.00 0.00 59 1010.8
20260506080301 19 0 0.0 0.0 0.00 0.00 0.00 58 1010.9
20260506080220 19 0 0.0 0.0 0.00 0.00 0.00 57 1010.8
20260506080146 19 0 0.0 0.0 0.00 0.00 0.00 57 1010.8
20260506080120 19 0 0.0 0.0 0.00 0.00 0.00 56 1010.8
20260506073520 19 0 0.0 0.0 0.00 0.00 0.00 58 1010.7
20260506073513 19 0 0.0 0.0 0.00 0.00 0.00 58 1010.7
20260506073448 20 0 0.0 0.0 0.00 0.00 0.00 57 1010.7
20260506073441 20 0 0.0 0.0 0.00 0.00 0.00 57 1010.7
20260506073405 20 0 0.0 0.0 0.00 0.00 0.00 57 1010.7
20260506073336 20 0 0.0 0.0 0.00 0.00 0.00 58 1010.7
20260506073329 20 0 0.0 0.0 0.00 0.00 0.00 58 1010.7
20260506073304 20 0 0.0 0.0 0.00 0.00 0.00 61 1010.7
20260506073257 20 0 0.0 0.0 0.00 0.00 0.00 61 1010.7
20260506073221 20 0 0.0 0.0 0.00 0.00 0.00 60 1010.7
20260506073143 19 0 0.0 0.0 0.00 0.00 0.00 60 1010.7
20260506073107 19 0 0.0 0.0 0.00 0.00 0.00 59 1010.8
20260506073042 19 0 0.0 0.0 0.00 0.00 0.00 60 1010.7
20260506073035 19 0 0.0 0.0 0.00 0.00 0.00 60 1010.7
20260506072957 19 0 0.0 0.0 0.00 0.00 0.00 59 1010.8
20260506072928 19 0 0.0 0.0 0.00 0.00 0.00 59 1010.8
20260506072921 19 0 0.0 0.0 0.00 0.00 0.00 59 1010.8
20260506072854 20 0 0.0 0.0 0.00 0.00 0.00 58 1010.8
20260506072847 20 0 0.0 0.0 0.00 0.00 0.00 58 1010.8
20260506072820 20 0 0.0 0.0 0.00 0.00 0.00 58 1010.8
20260506072813 20 0 0.0 0.0 0.00 0.00 0.00 58 1010.8
20260506072743 20 0 0.0 0.0 0.00 0.00 0.00 57 1010.8
20260506072711 20 0 0.0 0.0 0.00 0.00 0.00 58 1010.8
20260506072635 20 0 0.0 0.0 0.00 0.00 0.00 56 1010.8
20260506072605 20 0 0.0 0.0 0.00 0.00 0.00 56 1010.8
20260506072559 20 0 0.0 0.0 0.00 0.00 0.00 56 1010.8
20260506072533 20 0 0.0 0.0 0.00 0.00 0.00 57 1010.8
20260506072527 20 0 0.0 0.0 0.00 0.00 0.00 57 1010.8
20260506072457 20 0 0.0 0.0 0.00 0.00 0.00 55 1010.8
20260506072451 20 0 0.0 0.0 0.00 0.00 0.00 55 1010.8
20260506072421 20 0 0.0 0.0 0.00 0.00 0.00 55 1010.8
20260506072415 20 0 0.0 0.0 0.00 0.00 0.00 55 1010.8
20260506072341 20 0 0.0 0.0 0.00 0.00 0.00 56 1010.8
20260506072312 20 0 0.0 0.0 0.00 0.00 0.00 59 1010.8
20260506072306 20 0 0.0 0.0 0.00 0.00 0.00 59 1010.8
20260506072231 20 0 0.0 0.0 0.00 0.00 0.00 61 1010.8
20260506072159 20 0 0.0 0.0 0.00 0.00 0.00 62 1010.8
20260506072123 20 0 0.0 0.0 0.00 0.00 0.00 62 1010.8
20260506072055 19 0 0.0 0.0 0.00 0.00 0.00 62 1010.9
20260506072049 19 0 0.0 0.0 0.00 0.00 0.00 62 1010.9
20260506072017 19 0 0.0 0.0 0.00 0.00 0.00 62 1010.9
20260506072011 19 0 0.0 0.0 0.00 0.00 0.00 62 1010.9
20260506071939 18 0 0.0 0.0 0.00 0.00 0.00 62 1010.9
20260506071933 18 0 0.0 0.0 0.00 0.00 0.00 62 1010.9
20260506071901 18 0 0.0 0.0 0.00 0.00 0.00 62 1010.9
20260506071827 18 0 0.0 0.0 0.00 0.00 0.00 62 1010.8
20260506071752 18 0 0.0 0.0 0.00 0.00 0.00 61 1010.9
20260506071719 18 0 0.0 0.0 0.00 0.00 0.00 61 1010.9
20260506071651 19 0 0.0 0.0 0.00 0.00 0.00 60 1010.9
20260506071645 19 0 0.0 0.0 0.00 0.00 0.00 60 1010.9
20260506071613 19 0 0.0 0.0 0.00 0.00 0.00 60 1010.9
20260506071539 19 0 0.0 0.0 0.00 0.00 0.00 62 1010.9
20260506071501 19 0 0.0 0.0 0.00 0.00 0.00 62 1010.8
20260506071401 19 0 0.0 0.0 0.00 0.00 0.00 62 1010.8
20260506071355 19 0 0.0 0.0 0.00 0.00 0.00 62 1010.8
20260506071329 19 0 0.0 0.0 0.00 0.00 0.00 61 1010.8
20260506071323 19 0 0.0 0.0 0.00 0.00 0.00 61 1010.8
20260506071253 19 0 0.0 0.0 0.00 0.00 0.00 62 1010.8
20260506071247 19 0 0.0 0.0 0.00 0.00 0.00 62 1010.8
20260506071217 19 0 0.0 0.0 0.00 0.00 0.00 63 1010.8
20260506071139 19 0 0.0 0.0 0.00 0.00 0.00 62 1010.8
20260506071103 19 0 0.0 0.0 0.00 0.00 0.00 63 1010.8
20260506071029 18 0 0.0 0.0 0.00 0.00 0.00 63 1010.8
20260506070953 18 0 0.0 0.0 0.00 0.00 0.00 63 1010.8
20260506070919 18 0 0.0 0.0 0.00 0.00 0.00 63 1010.7
20260506070841 18 0 0.0 0.0 0.00 0.00 0.00 62 1010.8
20260506070815 18 0 0.0 0.0 0.00 0.00 0.00 63 1010.7
20260506070809 18 0 0.0 0.0 0.00 0.00 0.00 63 1010.7
20260506070733 18 0 0.0 0.0 0.00 0.00 0.00 64 1010.8
20260506070707 18 0 0.0 0.0 0.00 0.00 0.00 64 1010.8
20260506070701 18 0 0.0 0.0 0.00 0.00 0.00 64 1010.8
20260506070623 18 0 0.0 0.0 0.00 0.00 0.00 63 1010.8
20260506070549 18 0 0.0 0.0 0.00 0.00 0.00 62 1010.8
20260506070523 18 0 0.0 0.0 0.00 0.00 0.00 62 1010.8
20260506070516 18 0 0.0 0.0 0.00 0.00 0.00 62 1010.8
20260506070445 18 0 0.0 0.0 0.00 0.00 0.00 62 1010.7
20260506070438 18 0 0.0 0.0 0.00 0.00 0.00 62 1010.7
20260506070411 18 0 0.0 0.0 0.00 0.00 0.00 62 1010.8
20260506070405 18 0 0.0 0.0 0.00 0.00 0.00 62 1010.8
20260506070337 18 0 0.0 0.0 0.00 0.00 0.00 62 1010.8
20260506070330 18 0 0.0 0.0 0.00 0.00 0.00 62 1010.8
20260506070257 18 0 0.0 0.0 0.00 0.00 0.00 65 1010.8
20260506070220 18 0 0.0 0.0 0.00 0.00 0.00 64 1010.8
20260506070149 18 0 0.0 0.0 0.00 0.00 0.00 65 1010.7
20260506070143 18 0 0.0 0.0 0.00 0.00 0.00 65 1010.7
20260506070115 18 0 0.0 0.0 0.00 0.00 0.00 65 1010.8
20260506070108 18 0 0.0 0.0 0.00 0.00 0.00 65 1010.8
20260506062512 18 0 0.0 0.0 0.00 0.00 0.00 71 1010.6
20260506062439 18 0 0.0 0.0 0.00 0.00 0.00 70 1010.6
20260506062405 18 0 0.0 0.0 0.00 0.00 0.00 71 1010.5
20260506062333 18 0 0.0 0.0 0.00 0.00 0.00 72 1010.6
20260506062255 18 0 0.0 0.0 0.00 0.00 0.00 71 1010.6
20260506062219 18 0 0.0 0.0 0.00 0.00 0.00 71 1010.5
20260506062119 17 0 0.0 0.0 0.00 0.00 0.00 71 1010.6
20260506062109 18 0 0.0 0.0 0.00 0.00 0.00 72 1010.6
20260506062037 18 0 0.0 0.0 0.00 0.00 0.00 71 1010.6
20260506061959 17 0 0.0 0.0 0.00 0.00 0.00 71 1010.6
20260506061925 17 0 0.0 0.0 0.00 0.00 0.00 70 1010.6
20260506061851 17 0 0.0 0.0 0.00 0.00 0.00 69 1010.6
20260506061813 17 0 0.0 0.0 0.00 0.00 0.00 71 1010.6
20260506061737 17 0 0.0 0.0 0.00 0.00 0.00 71 1010.6
20260506061701 17 0 0.0 0.0 0.00 0.00 0.00 71 1010.6
20260506061629 17 0 0.0 0.0 0.00 0.00 0.00 71 1010.6
20260506061553 17 0 0.0 0.0 0.00 0.00 0.00 70 1010.6
20260506061521 17 0 0.0 0.0 0.00 0.00 0.00 69 1010.6
20260506061445 17 0 0.0 0.0 0.00 0.00 0.00 69 1010.6
20260506061407 17 0 0.0 0.0 0.00 0.00 0.00 71 1010.6
20260506061333 17 0 0.0 0.0 0.00 0.00 0.00 72 1010.6
20260506061257 17 0 0.0 0.0 0.00 0.00 0.00 72 1010.6
20260506061223 17 0 0.0 0.0 0.00 0.00 0.00 71 1010.6
20260506061151 17 0 0.0 0.0 0.00 0.00 0.00 71 1010.6
20260506061113 17 0 0.0 0.0 0.00 0.00 0.00 70 1010.5
20260506061039 17 0 0.0 0.0 0.00 0.00 0.00 69 1010.5
20260506061005 17 0 0.0 0.0 0.00 0.00 0.00 69 1010.5
20260506060931 17 0 0.0 0.0 0.00 0.00 0.00 70 1010.5
20260506060855 17 0 0.0 0.0 0.00 0.00 0.00 69 1010.5
20260506060819 17 0 0.0 0.0 0.00 0.00 0.00 72 1010.6
20260506060741 17 0 0.0 0.0 0.00 0.00 0.00 72 1010.5
20260506060707 17 0 0.0 0.0 0.00 0.00 0.00 72 1010.5
20260506060631 17 0 0.0 0.0 0.00 0.00 0.00 71 1010.5
20260506060557 18 0 0.0 0.0 0.00 0.00 0.00 72 1010.6
20260506060523 17 0 0.0 0.0 0.00 0.00 0.00 73 1010.6
20260506060445 17 0 0.0 0.0 0.00 0.00 0.00 73 1010.6
20260506060411 17 0 0.0 0.0 0.00 0.00 0.00 73 1010.5
20260506060339 17 0 0.0 0.0 0.00 0.00 0.00 75 1010.5
20260506060305 17 0 0.0 0.0 0.00 0.00 0.00 79 1010.5
20260506060225 17 0 0.0 0.0 0.00 0.00 0.00 77 1010.5
20260506060151 17 0 0.0 0.0 0.00 0.00 0.00 77 1010.5
20260506060115 17 0 0.0 0.0 0.00 0.00 0.00 79 1010.5